GEFSNE_prec_meanprecacc_066.txt.gz
Total_Precipitation_Accumulation
0.36 0.37 0.35 0.32 0.32 0.35 0.40 0.47 0.54 0.51 0.42 0.35 0.36 0.38 0.40 0.42 0.47 0.46 0.44 0.50 0.52 0.51 0.53 0.54 0.51 0.47 0.42 0.40 0.39 0.39 0.38 0.38 0.36 0.34 0.33 0.32 0.31 0.32
0.27 0.29 0.29 0.28 0.29 0.32 0.37 0.42 0.48 0.53 0.50 0.39 0.35 0.37 0.40 0.42 0.45 0.41 0.38 0.44 0.43 0.43 0.43 0.43 0.40 0.36 0.32 0.31 0.31 0.31 0.32 0.34 0.34 0.35 0.36 0.37 0.39 0.39
0.19 0.21 0.23 0.23 0.25 0.27 0.31 0.36 0.41 0.46 0.51 0.46 0.41 0.42 0.43 0.40 0.39 0.35 0.31 0.30 0.28 0.31 0.31 0.30 0.28 0.26 0.24 0.23 0.22 0.23 0.24 0.26 0.28 0.31 0.35 0.37 0.39 0.39
0.17 0.19 0.21 0.23 0.26 0.28 0.31 0.34 0.37 0.38 0.41 0.40 0.36 0.33 0.32 0.29 0.25 0.21 0.17 0.15 0.13 0.16 0.17 0.18 0.17 0.16 0.15 0.15 0.17 0.19 0.22 0.24 0.26 0.27 0.29 0.30 0.32 0.34
0.17 0.19 0.21 0.23 0.27 0.28 0.29 0.31 0.32 0.31 0.31 0.31 0.27 0.23 0.20 0.18 0.15 0.12 0.09 0.07 0.06 0.06 0.07 0.08 0.09 0.10 0.12 0.14 0.15 0.14 0.14 0.14 0.14 0.14 0.16 0.18 0.20 0.23
0.19 0.21 0.24 0.26 0.27 0.28 0.29 0.30 0.28 0.25 0.23 0.23 0.23 0.21 0.18 0.13 0.10 0.07 0.05 0.04 0.03 0.03 0.03 0.04 0.05 0.05 0.05 0.05 0.05 0.05 0.05 0.07 0.09 0.12 0.15 0.17 0.18 0.19
0.27 0.29 0.30 0.32 0.31 0.28 0.25 0.22 0.19 0.18 0.21 0.26 0.26 0.19 0.12 0.08 0.06 0.04 0.04 0.03 0.02 0.02 0.02 0.01 0.01 0.01 0.01 0.01 0.02 0.03 0.05 0.08 0.12 0.14 0.17 0.20 0.20 0.21
0.30 0.30 0.29 0.28 0.25 0.23 0.20 0.18 0.19 0.23 0.30 0.32 0.23 0.12 0.06 0.04 0.04 0.05 0.07 0.09 0.06 0.01 0.01 0.01 0.00 0.00 0.00 0.01 0.02 0.03 0.05 0.07 0.08 0.10 0.12 0.14 0.16 0.17
0.29 0.26 0.23 0.20 0.18 0.14 0.12 0.13 0.15 0.19 0.20 0.14 0.07 0.03 0.03 0.04 0.08 0.13 0.12 0.12 0.08 0.01 0.02 0.02 0.00 0.01 0.01 0.01 0.01 0.01 0.02 0.03 0.05 0.08 0.10 0.12 0.14 0.15
0.21 0.16 0.13 0.10 0.08 0.08 0.09 0.14 0.11 0.08 0.04 0.02 0.02 0.02 0.03 0.04 0.08 0.14 0.14 0.10 0.03 0.01 0.01 0.02 0.00 0.00 0.00 0.00 0.00 0.00 0.02 0.05 0.09 0.12 0.14 0.15 0.16 0.16
0.10 0.07 0.06 0.05 0.06 0.10 0.15 0.17 0.07 0.01 0.01 0.02 0.03 0.03 0.03 0.02 0.03 0.10 0.15 0.15 0.09 0.01 0.00 0.00 0.00 0.00 0.00 0.00 0.00 0.00 0.02 0.03 0.04 0.06 0.07 0.09 0.10 0.12
0.03 0.02 0.02 0.03 0.06 0.12 0.13 0.09 0.02 0.01 0.02 0.01 0.00 0.00 0.00 0.00 0.01 0.07 0.20 0.35 0.26 0.12 0.00 0.04 0.06 0.08 0.15 0.02 0.00 0.00 0.01 0.01 0.02 0.03 0.04 0.06 0.09 0.12
0.01 0.01 0.01 0.04 0.10 0.12 0.07 0.02 0.02 0.05 0.03 0.00 0.00 0.00 0.00 0.00 0.00 0.01 0.08 0.35 0.51 0.29 0.04 0.22 0.33 0.15 0.24 0.11 0.00 0.00 0.00 0.00 0.02 0.03 0.06 0.09 0.14 0.25
0.01 0.01 0.02 0.07 0.08 0.04 0.01 0.01 0.03 0.03 0.00 0.00 0.00 0.00 0.01 0.01 0.00 0.01 0.02 0.06 0.21 0.30 0.15 0.34 0.60 0.36 0.40 0.26 0.04 0.00 0.00 0.01 0.05 0.11 0.16 0.20 0.24 0.29
0.02 0.04 0.05 0.04 0.01 0.00 0.00 0.01 0.01 0.00 0.01 0.03 0.02 0.01 0.01 0.01 0.01 0.02 0.01 0.01 0.02 0.03 0.06 0.13 0.35 0.39 0.47 0.43 0.20 0.05 0.04 0.03 0.06 0.16 0.21 0.23 0.26 0.32
0.03 0.03 0.02 0.00 0.00 0.00 0.00 0.00 0.00 0.00 0.04 0.06 0.04 0.02 0.01 0.01 0.02 0.03 0.05 0.05 0.06 0.01 0.00 0.02 0.10 0.31 0.40 0.24 0.26 0.19 0.14 0.19 0.15 0.23 0.27 0.26 0.30 0.39
0.03 0.01 0.00 0.00 0.00 0.00 0.00 0.00 0.00 0.01 0.02 0.03 0.05 0.05 0.03 0.02 0.02 0.02 0.07 0.11 0.13 0.08 0.03 0.01 0.01 0.06 0.14 0.18 0.21 0.14 0.13 0.21 0.31 0.40 0.45 0.44 0.38 0.45
0.01 0.00 0.00 0.00 0.00 0.00 0.00 0.01 0.01 0.01 0.03 0.05 0.06 0.08 0.09 0.08 0.06 0.03 0.06 0.13 0.15 0.10 0.07 0.05 0.06 0.09 0.05 0.03 0.12 0.23 0.25 0.33 0.41 0.47 0.58 0.68 0.55 0.46
0.00 0.00 0.00 0.00 0.00 0.01 0.02 0.03 0.03 0.01 0.03 0.06 0.09 0.12 0.14 0.12 0.09 0.08 0.08 0.11 0.11 0.08 0.08 0.09 0.16 0.36 0.37 0.16 0.05 0.22 0.47 0.52 0.48 0.50 0.58 0.76 0.91 0.74
0.00 0.00 0.00 0.01 0.01 0.03 0.03 0.04 0.04 0.03 0.04 0.06 0.09 0.12 0.17 0.18 0.14 0.12 0.12 0.16 0.18 0.13 0.08 0.06 0.13 0.40 0.70 0.58 0.35 0.25 0.33 0.55 0.74 0.80 0.66 0.53 0.58 0.56
0.00 0.00 0.00 0.01 0.03 0.04 0.05 0.06 0.06 0.07 0.07 0.11 0.12 0.15 0.19 0.23 0.18 0.12 0.14 0.13 0.17 0.18 0.15 0.10 0.11 0.21 0.38 0.47 0.36 0.21 0.24 0.33 0.59 0.94 0.90 0.68 0.48 0.39
0.00 0.01 0.01 0.01 0.04 0.06 0.07 0.07 0.07 0.06 0.08 0.11 0.13 0.15 0.18 0.24 0.24 0.19 0.17 0.19 0.17 0.19 0.18 0.09 0.05 0.10 0.22 0.39 0.33 0.18 0.15 0.13 0.14 0.22 0.54 0.97 1.39 1.49
0.01 0.01 0.02 0.03 0.06 0.07 0.07 0.06 0.06 0.07 0.10 0.15 0.17 0.16 0.19 0.20 0.19 0.20 0.21 0.23 0.25 0.19 0.15 0.10 0.05 0.06 0.12 0.19 0.24 0.18 0.11 0.08 0.07 0.11 0.30 0.50 0.79 1.06

GEFSNE_prec_meanprecacc_072.txt.gz
Total_Precipitation_Accumulation
0.36 0.37 0.35 0.32 0.33 0.35 0.40 0.47 0.55 0.52 0.43 0.36 0.36 0.38 0.40 0.42 0.47 0.46 0.44 0.51 0.52 0.51 0.53 0.54 0.52 0.49 0.45 0.45 0.47 0.49 0.50 0.48 0.45 0.42 0.40 0.38 0.38 0.38
0.27 0.29 0.29 0.28 0.30 0.32 0.37 0.42 0.48 0.55 0.52 0.39 0.35 0.37 0.40 0.42 0.45 0.41 0.38 0.44 0.44 0.43 0.44 0.43 0.41 0.38 0.35 0.34 0.36 0.38 0.38 0.40 0.40 0.41 0.43 0.45 0.45 0.45
0.19 0.21 0.23 0.23 0.25 0.27 0.31 0.36 0.42 0.47 0.52 0.46 0.41 0.42 0.43 0.40 0.39 0.35 0.31 0.30 0.28 0.31 0.31 0.30 0.29 0.27 0.26 0.25 0.25 0.26 0.27 0.30 0.32 0.36 0.39 0.43 0.44 0.43
0.17 0.19 0.21 0.23 0.26 0.28 0.31 0.34 0.37 0.39 0.41 0.40 0.36 0.33 0.32 0.29 0.25 0.21 0.17 0.15 0.13 0.17 0.18 0.18 0.18 0.17 0.16 0.17 0.18 0.21 0.23 0.26 0.28 0.29 0.31 0.33 0.35 0.37
0.17 0.19 0.21 0.23 0.27 0.28 0.29 0.31 0.32 0.31 0.31 0.31 0.27 0.23 0.20 0.18 0.15 0.12 0.09 0.07 0.06 0.06 0.07 0.08 0.09 0.11 0.13 0.14 0.15 0.15 0.15 0.15 0.15 0.16 0.18 0.21 0.23 0.25
0.19 0.21 0.24 0.26 0.27 0.28 0.29 0.30 0.28 0.25 0.23 0.23 0.23 0.21 0.18 0.13 0.10 0.07 0.05 0.04 0.03 0.03 0.03 0.04 0.05 0.06 0.05 0.05 0.05 0.06 0.06 0.07 0.10 0.13 0.16 0.18 0.19 0.21
0.27 0.29 0.30 0.32 0.31 0.28 0.25 0.22 0.19 0.18 0.21 0.26 0.26 0.19 0.12 0.08 0.06 0.04 0.04 0.03 0.02 0.02 0.02 0.01 0.01 0.01 0.01 0.01 0.02 0.03 0.05 0.09 0.12 0.14 0.18 0.20 0.21 0.22
0.30 0.30 0.29 0.28 0.25 0.23 0.20 0.18 0.19 0.23 0.30 0.32 0.23 0.12 0.06 0.04 0.04 0.05 0.07 0.09 0.06 0.01 0.01 0.01 0.00 0.00 0.00 0.01 0.02 0.03 0.05 0.07 0.08 0.10 0.12 0.14 0.16 0.17
0.29 0.26 0.23 0.20 0.18 0.14 0.12 0.13 0.15 0.19 0.20 0.14 0.07 0.03 0.03 0.04 0.08 0.13 0.12 0.12 0.08 0.01 0.02 0.02 0.00 0.01 0.01 0.01 0.01 0.01 0.02 0.03 0.05 0.08 0.10 0.12 0.14 0.15
0.21 0.16 0.13 0.10 0.08 0.08 0.09 0.14 0.11 0.08 0.04 0.02 0.02 0.02 0.03 0.04 0.08 0.14 0.14 0.10 0.03 0.01 0.01 0.02 0.00 0.00 0.00 0.00 0.00 0.00 0.02 0.05 0.09 0.12 0.14 0.15 0.16 0.16
0.10 0.07 0.06 0.05 0.06 0.10 0.15 0.17 0.07 0.01 0.01 0.02 0.03 0.03 0.03 0.02 0.03 0.10 0.15 0.15 0.09 0.01 0.00 0.00 0.00 0.00 0.00 0.00 0.00 0.00 0.02 0.03 0.04 0.06 0.07 0.09 0.10 0.13
0.03 0.02 0.02 0.03 0.06 0.12 0.13 0.09 0.02 0.01 0.02 0.01 0.00 0.00 0.00 0.00 0.01 0.07 0.20 0.35 0.26 0.12 0.00 0.04 0.06 0.08 0.15 0.02 0.00 0.00 0.01 0.01 0.02 0.03 0.04 0.06 0.09 0.12
0.01 0.01 0.01 0.04 0.10 0.12 0.07 0.02 0.02 0.05 0.03 0.00 0.00 0.00 0.00 0.00 0.00 0.01 0.08 0.35 0.51 0.29 0.04 0.22 0.33 0.15 0.24 0.11 0.00 0.00 0.00 0.00 0.02 0.03 0.06 0.09 0.14 0.25
0.01 0.01 0.02 0.07 0.08 0.04 0.01 0.01 0.03 0.03 0.00 0.00 0.00 0.00 0.01 0.01 0.00 0.01 0.02 0.06 0.21 0.30 0.15 0.34 0.60 0.36 0.40 0.26 0.04 0.00 0.00 0.01 0.05 0.11 0.16 0.20 0.24 0.29
0.02 0.04 0.05 0.04 0.01 0.00 0.00 0.01 0.01 0.00 0.01 0.03 0.02 0.01 0.01 0.01 0.01 0.02 0.01 0.01 0.02 0.03 0.06 0.13 0.35 0.39 0.48 0.43 0.20 0.05 0.04 0.03 0.06 0.16 0.21 0.23 0.26 0.32
0.03 0.03 0.02 0.00 0.00 0.00 0.00 0.00 0.00 0.00 0.04 0.06 0.04 0.02 0.01 0.01 0.02 0.03 0.05 0.05 0.06 0.01 0.00 0.02 0.10 0.31 0.40 0.24 0.26 0.19 0.14 0.19 0.15 0.23 0.27 0.26 0.30 0.39
0.03 0.01 0.00 0.00 0.00 0.00 0.00 0.00 0.00 0.01 0.02 0.03 0.05 0.05 0.03 0.02 0.02 0.02 0.07 0.11 0.13 0.08 0.03 0.01 0.01 0.06 0.14 0.18 0.22 0.14 0.13 0.21 0.31 0.40 0.45 0.44 0.38 0.45
0.01 0.00 0.00 0.00 0.00 0.00 0.01 0.01 0.01 0.01 0.03 0.05 0.06 0.08 0.09 0.08 0.06 0.03 0.06 0.13 0.15 0.10 0.07 0.05 0.06 0.09 0.06 0.03 0.12 0.23 0.25 0.33 0.41 0.47 0.58 0.68 0.55 0.46
0.00 0.00 0.00 0.00 0.01 0.01 0.02 0.03 0.03 0.01 0.03 0.06 0.09 0.12 0.14 0.12 0.09 0.08 0.08 0.11 0.11 0.08 0.08 0.09 0.16 0.37 0.38 0.16 0.05 0.22 0.47 0.52 0.48 0.50 0.59 0.76 0.91 0.74
0.00 0.00 0.01 0.01 0.01 0.03 0.04 0.05 0.04 0.03 0.04 0.06 0.09 0.12 0.17 0.18 0.14 0.12 0.12 0.16 0.19 0.14 0.08 0.06 0.14 0.41 0.71 0.58 0.36 0.25 0.33 0.55 0.74 0.81 0.66 0.54 0.58 0.56
0.00 0.00 0.01 0.01 0.03 0.05 0.05 0.06 0.06 0.07 0.07 0.11 0.12 0.15 0.19 0.24 0.18 0.13 0.14 0.13 0.17 0.18 0.15 0.10 0.12 0.21 0.39 0.49 0.38 0.21 0.24 0.33 0.59 0.94 0.90 0.69 0.49 0.40
0.00 0.01 0.01 0.02 0.04 0.06 0.07 0.07 0.07 0.07 0.08 0.11 0.13 0.15 0.18 0.24 0.24 0.19 0.17 0.19 0.18 0.19 0.18 0.09 0.05 0.10 0.23 0.41 0.34 0.18 0.15 0.13 0.14 0.22 0.54 0.98 1.40 1.50
0.01 0.02 0.02 0.04 0.06 0.07 0.08 0.07 0.07 0.07 0.10 0.16 0.17 0.17 0.19 0.21 0.19 0.20 0.21 0.23 0.25 0.20 0.15 0.10 0.05 0.07 0.13 0.21 0.26 0.19 0.11 0.08 0.07 0.12 0.30 0.50 0.79 1.06

GEFSNE_prec_meanprecacc_078.txt.gz
Total_Precipitation_Accumulation
0.36 0.37 0.35 0.32 0.33 0.35 0.41 0.48 0.56 0.53 0.43 0.36 0.36 0.38 0.40 0.42 0.47 0.46 0.44 0.51 0.52 0.51 0.54 0.55 0.52 0.49 0.46 0.46 0.49 0.54 0.57 0.56 0.52 0.49 0.46 0.43 0.42 0.44
0.27 0.29 0.29 0.28 0.30 0.32 0.37 0.42 0.49 0.55 0.52 0.39 0.35 0.37 0.40 0.42 0.46 0.41 0.38 0.44 0.44 0.44 0.44 0.44 0.42 0.38 0.36 0.35 0.37 0.41 0.44 0.46 0.47 0.49 0.51 0.51 0.50 0.50
0.19 0.21 0.23 0.23 0.25 0.27 0.31 0.37 0.42 0.47 0.52 0.46 0.41 0.42 0.43 0.41 0.39 0.35 0.31 0.30 0.28 0.32 0.32 0.31 0.29 0.28 0.26 0.26 0.26 0.28 0.30 0.34 0.37 0.41 0.46 0.49 0.49 0.48
0.17 0.19 0.21 0.23 0.26 0.28 0.31 0.34 0.37 0.39 0.42 0.41 0.36 0.34 0.33 0.30 0.26 0.21 0.17 0.15 0.14 0.17 0.18 0.18 0.18 0.17 0.17 0.17 0.19 0.22 0.25 0.28 0.30 0.32 0.34 0.36 0.39 0.40
0.17 0.19 0.21 0.24 0.27 0.28 0.29 0.31 0.32 0.31 0.31 0.31 0.28 0.24 0.21 0.18 0.16 0.12 0.09 0.08 0.06 0.06 0.07 0.08 0.09 0.11 0.13 0.15 0.16 0.16 0.16 0.16 0.16 0.17 0.20 0.22 0.24 0.27
0.19 0.21 0.24 0.26 0.27 0.28 0.29 0.30 0.28 0.25 0.23 0.23 0.23 0.21 0.18 0.13 0.10 0.07 0.05 0.04 0.04 0.03 0.03 0.04 0.05 0.06 0.05 0.05 0.05 0.06 0.06 0.08 0.10 0.14 0.17 0.19 0.20 0.22
0.27 0.29 0.30 0.32 0.31 0.28 0.25 0.22 0.19 0.18 0.21 0.26 0.26 0.20 0.12 0.08 0.06 0.04 0.04 0.03 0.02 0.02 0.02 0.01 0.01 0.01 0.01 0.01 0.02 0.03 0.06 0.09 0.12 0.15 0.18 0.21 0.22 0.23
0.30 0.30 0.29 0.28 0.25 0.23 0.20 0.18 0.19 0.23 0.30 0.32 0.23 0.12 0.06 0.04 0.04 0.05 0.07 0.09 0.06 0.01 0.01 0.01 0.00 0.00 0.00 0.01 0.02 0.03 0.05 0.07 0.09 0.10 0.13 0.15 0.16 0.17
0.29 0.26 0.23 0.20 0.18 0.14 0.12 0.13 0.16 0.19 0.20 0.14 0.07 0.03 0.03 0.04 0.08 0.13 0.12 0.12 0.08 0.01 0.02 0.02 0.00 0.01 0.01 0.01 0.01 0.01 0.02 0.03 0.05 0.08 0.11 0.12 0.14 0.15
0.21 0.16 0.13 0.10 0.08 0.08 0.09 0.14 0.11 0.08 0.04 0.02 0.02 0.02 0.03 0.04 0.08 0.14 0.14 0.10 0.03 0.01 0.01 0.02 0.00 0.00 0.00 0.00 0.00 0.00 0.02 0.05 0.09 0.12 0.14 0.15 0.16 0.16
0.10 0.07 0.06 0.05 0.06 0.10 0.15 0.17 0.07 0.01 0.01 0.02 0.03 0.03 0.03 0.02 0.03 0.10 0.15 0.15 0.09 0.01 0.00 0.00 0.00 0.00 0.00 0.00 0.00 0.00 0.02 0.03 0.04 0.06 0.07 0.09 0.10 0.13
0.03 0.02 0.03 0.03 0.06 0.12 0.13 0.09 0.02 0.01 0.02 0.01 0.00 0.00 0.00 0.00 0.01 0.07 0.20 0.35 0.26 0.12 0.00 0.04 0.06 0.08 0.15 0.02 0.00 0.00 0.01 0.01 0.02 0.03 0.04 0.06 0.09 0.12
0.01 0.01 0.01 0.04 0.10 0.12 0.07 0.02 0.02 0.05 0.03 0.00 0.00 0.00 0.00 0.00 0.00 0.01 0.08 0.35 0.51 0.29 0.04 0.22 0.33 0.15 0.24 0.11 0.00 0.00 0.00 0.00 0.02 0.03 0.06 0.09 0.14 0.25
0.01 0.01 0.02 0.07 0.08 0.04 0.01 0.01 0.03 0.03 0.00 0.00 0.00 0.00 0.01 0.01 0.00 0.01 0.02 0.06 0.21 0.30 0.15 0.34 0.60 0.36 0.40 0.26 0.04 0.00 0.00 0.01 0.05 0.11 0.16 0.20 0.24 0.29
0.03 0.04 0.06 0.04 0.01 0.00 0.00 0.01 0.01 0.00 0.01 0.03 0.02 0.01 0.01 0.01 0.01 0.02 0.01 0.01 0.02 0.03 0.06 0.13 0.35 0.39 0.48 0.43 0.20 0.05 0.04 0.03 0.06 0.16 0.21 0.23 0.26 0.32
0.03 0.03 0.02 0.00 0.00 0.00 0.00 0.00 0.00 0.00 0.04 0.06 0.04 0.02 0.01 0.01 0.02 0.03 0.05 0.05 0.06 0.01 0.00 0.02 0.10 0.31 0.40 0.24 0.27 0.19 0.14 0.19 0.15 0.23 0.27 0.26 0.30 0.39
0.03 0.01 0.00 0.00 0.00 0.00 0.00 0.00 0.00 0.01 0.02 0.03 0.05 0.05 0.03 0.02 0.02 0.02 0.07 0.11 0.13 0.08 0.03 0.01 0.01 0.06 0.14 0.18 0.22 0.14 0.13 0.21 0.31 0.40 0.46 0.44 0.38 0.45
0.01 0.00 0.00 0.00 0.00 0.00 0.01 0.01 0.01 0.02 0.03 0.05 0.06 0.08 0.09 0.08 0.06 0.03 0.06 0.13 0.15 0.10 0.07 0.05 0.06 0.09 0.06 0.04 0.12 0.24 0.25 0.33 0.41 0.47 0.58 0.68 0.55 0.46
0.01 0.00 0.00 0.01 0.01 0.02 0.03 0.04 0.03 0.02 0.04 0.07 0.09 0.12 0.14 0.12 0.09 0.08 0.08 0.11 0.11 0.09 0.08 0.09 0.16 0.37 0.38 0.16 0.05 0.22 0.47 0.52 0.48 0.50 0.59 0.76 0.91 0.74
0.01 0.01 0.01 0.01 0.02 0.04 0.05 0.05 0.05 0.04 0.04 0.06 0.09 0.13 0.17 0.18 0.14 0.12 0.13 0.16 0.19 0.14 0.08 0.06 0.14 0.41 0.72 0.59 0.36 0.25 0.33 0.55 0.74 0.81 0.66 0.54 0.58 0.56
0.01 0.01 0.01 0.02 0.04 0.05 0.06 0.06 0.07 0.07 0.07 0.11 0.12 0.15 0.19 0.24 0.18 0.13 0.14 0.14 0.17 0.18 0.16 0.10 0.12 0.21 0.39 0.51 0.39 0.21 0.24 0.33 0.59 0.94 0.90 0.69 0.49 0.40
0.02 0.02 0.02 0.03 0.05 0.07 0.08 0.08 0.08 0.07 0.09 0.11 0.13 0.16 0.19 0.24 0.25 0.19 0.18 0.19 0.18 0.19 0.18 0.09 0.05 0.10 0.24 0.43 0.35 0.18 0.15 0.13 0.14 0.22 0.54 0.99 1.41 1.51
0.03 0.04 0.04 0.06 0.08 0.09 0.09 0.08 0.08 0.08 0.11 0.16 0.17 0.17 0.19 0.21 0.19 0.21 0.21 0.24 0.25 0.20 0.16 0.10 0.05 0.07 0.14 0.21 0.26 0.19 0.12 0.08 0.07 0.12 0.30 0.50 0.79 1.06

GEFSNE_prec_meanprecacc_084.txt.gz
Total_Precipitation_Accumulation
0.36 0.37 0.36 0.32 0.33 0.36 0.41 0.48 0.57 0.54 0.43 0.36 0.36 0.38 0.41 0.43 0.48 0.47 0.44 0.52 0.53 0.51 0.54 0.55 0.53 0.50 0.46 0.47 0.50 0.55 0.60 0.60 0.58 0.56 0.53 0.50 0.49 0.52
0.27 0.29 0.29 0.28 0.30 0.32 0.37 0.43 0.49 0.56 0.53 0.40 0.35 0.37 0.40 0.42 0.46 0.41 0.38 0.45 0.44 0.44 0.45 0.44 0.42 0.39 0.36 0.36 0.38 0.42 0.46 0.49 0.52 0.55 0.58 0.58 0.57 0.57
0.19 0.21 0.23 0.23 0.25 0.27 0.31 0.37 0.42 0.48 0.53 0.47 0.42 0.42 0.43 0.41 0.40 0.35 0.32 0.30 0.29 0.33 0.32 0.31 0.30 0.28 0.27 0.27 0.27 0.29 0.32 0.37 0.43 0.50 0.55 0.57 0.56 0.54
0.17 0.19 0.21 0.23 0.26 0.28 0.31 0.34 0.37 0.39 0.42 0.41 0.36 0.34 0.33 0.30 0.26 0.22 0.18 0.16 0.15 0.19 0.19 0.20 0.19 0.17 0.17 0.18 0.19 0.22 0.26 0.30 0.34 0.38 0.40 0.43 0.45 0.45
0.17 0.19 0.21 0.24 0.27 0.28 0.29 0.31 0.32 0.31 0.31 0.31 0.28 0.24 0.21 0.19 0.16 0.13 0.10 0.08 0.07 0.07 0.08 0.09 0.10 0.11 0.13 0.15 0.16 0.16 0.17 0.17 0.18 0.20 0.23 0.26 0.28 0.30
0.19 0.21 0.24 0.26 0.27 0.28 0.29 0.30 0.28 0.26 0.23 0.23 0.23 0.22 0.18 0.14 0.11 0.08 0.06 0.05 0.04 0.03 0.04 0.04 0.05 0.06 0.06 0.05 0.05 0.06 0.07 0.09 0.12 0.16 0.19 0.21 0.22 0.24
0.27 0.29 0.30 0.32 0.31 0.28 0.25 0.22 0.19 0.18 0.21 0.26 0.27 0.20 0.12 0.08 0.06 0.05 0.04 0.04 0.03 0.02 0.02 0.02 0.01 0.01 0.01 0.01 0.02 0.03 0.06 0.09 0.13 0.16 0.19 0.22 0.23 0.24
0.30 0.30 0.29 0.28 0.25 0.23 0.20 0.18 0.19 0.23 0.30 0.32 0.23 0.12 0.06 0.05 0.04 0.05 0.07 0.09 0.06 0.01 0.01 0.01 0.00 0.00 0.00 0.01 0.02 0.04 0.06 0.07 0.09 0.11 0.13 0.15 0.17 0.18
0.29 0.26 0.23 0.20 0.18 0.14 0.12 0.13 0.16 0.19 0.20 0.15 0.07 0.03 0.03 0.04 0.08 0.13 0.12 0.13 0.08 0.01 0.02 0.02 0.00 0.01 0.01 0.01 0.01 0.01 0.02 0.04 0.06 0.08 0.11 0.13 0.14 0.15
0.21 0.16 0.13 0.10 0.08 0.08 0.09 0.14 0.11 0.08 0.04 0.02 0.02 0.02 0.03 0.04 0.08 0.15 0.14 0.10 0.03 0.01 0.01 0.02 0.00 0.00 0.00 0.00 0.00 0.01 0.02 0.05 0.09 0.12 0.14 0.15 0.16 0.17
0.10 0.07 0.06 0.05 0.06 0.10 0.15 0.17 0.07 0.01 0.01 0.02 0.03 0.03 0.03 0.03 0.03 0.10 0.15 0.15 0.09 0.01 0.00 0.00 0.00 0.00 0.00 0.00 0.00 0.01 0.02 0.03 0.05 0.06 0.07 0.09 0.10 0.13
0.03 0.02 0.03 0.03 0.07 0.13 0.13 0.09 0.02 0.01 0.02 0.01 0.00 0.00 0.00 0.00 0.01 0.07 0.20 0.35 0.26 0.12 0.00 0.04 0.06 0.08 0.15 0.02 0.00 0.00 0.01 0.01 0.02 0.03 0.04 0.06 0.09 0.12
0.01 0.01 0.01 0.04 0.10 0.12 0.07 0.02 0.02 0.05 0.03 0.00 0.00 0.00 0.00 0.00 0.00 0.01 0.08 0.35 0.51 0.29 0.04 0.22 0.33 0.15 0.24 0.11 0.00 0.00 0.00 0.00 0.02 0.03 0.06 0.09 0.14 0.25
0.01 0.01 0.02 0.07 0.08 0.04 0.01 0.01 0.03 0.03 0.00 0.00 0.00 0.00 0.01 0.01 0.00 0.01 0.02 0.06 0.21 0.30 0.15 0.34 0.60 0.36 0.40 0.26 0.04 0.00 0.00 0.01 0.05 0.11 0.16 0.20 0.24 0.29
0.03 0.04 0.06 0.04 0.01 0.00 0.00 0.01 0.01 0.00 0.01 0.03 0.02 0.01 0.01 0.01 0.01 0.02 0.01 0.01 0.02 0.03 0.06 0.13 0.35 0.39 0.48 0.43 0.20 0.05 0.04 0.03 0.06 0.16 0.21 0.23 0.26 0.32
0.03 0.03 0.02 0.00 0.00 0.00 0.00 0.00 0.00 0.00 0.04 0.06 0.04 0.02 0.01 0.01 0.02 0.03 0.05 0.05 0.06 0.01 0.00 0.02 0.10 0.31 0.40 0.24 0.27 0.19 0.14 0.19 0.15 0.23 0.27 0.26 0.30 0.39
0.03 0.01 0.00 0.00 0.00 0.00 0.00 0.00 0.00 0.01 0.02 0.03 0.05 0.05 0.03 0.02 0.02 0.02 0.07 0.11 0.13 0.08 0.03 0.01 0.01 0.06 0.14 0.19 0.22 0.14 0.13 0.21 0.31 0.40 0.46 0.44 0.38 0.45
0.02 0.01 0.00 0.00 0.00 0.01 0.01 0.01 0.01 0.02 0.03 0.05 0.06 0.08 0.09 0.08 0.06 0.03 0.06 0.13 0.15 0.10 0.07 0.05 0.06 0.10 0.06 0.04 0.13 0.24 0.25 0.33 0.41 0.47 0.58 0.68 0.55 0.46
0.02 0.01 0.01 0.01 0.01 0.02 0.03 0.04 0.03 0.02 0.04 0.07 0.10 0.12 0.15 0.12 0.09 0.08 0.08 0.11 0.11 0.09 0.08 0.09 0.17 0.37 0.39 0.17 0.05 0.22 0.47 0.52 0.48 0.50 0.59 0.76 0.91 0.74
0.01 0.01 0.02 0.02 0.02 0.04 0.05 0.06 0.05 0.04 0.05 0.07 0.09 0.13 0.17 0.18 0.14 0.12 0.13 0.16 0.19 0.14 0.08 0.06 0.14 0.41 0.72 0.59 0.36 0.25 0.33 0.55 0.74 0.81 0.66 0.54 0.58 0.56
0.01 0.02 0.02 0.03 0.04 0.06 0.07 0.07 0.08 0.08 0.08 0.12 0.13 0.15 0.20 0.24 0.18 0.13 0.15 0.14 0.17 0.19 0.16 0.10 0.12 0.21 0.39 0.51 0.39 0.21 0.24 0.33 0.59 0.94 0.90 0.70 0.50 0.40
0.03 0.03 0.03 0.04 0.07 0.09 0.09 0.09 0.10 0.09 0.10 0.13 0.14 0.17 0.20 0.25 0.26 0.20 0.18 0.20 0.18 0.20 0.18 0.09 0.06 0.11 0.25 0.43 0.35 0.18 0.15 0.13 0.14 0.22 0.54 0.99 1.42 1.51
0.04 0.05 0.06 0.08 0.10 0.11 0.11 0.11 0.10 0.10 0.13 0.18 0.19 0.19 0.21 0.22 0.20 0.22 0.22 0.25 0.26 0.21 0.16 0.11 0.06 0.08 0.14 0.22 0.27 0.19 0.12 0.08 0.07 0.12 0.30 0.50 0.79 1.06

GEFSNE_prec_meanprecacc_090.txt.gz
Total_Precipitation_Accumulation
0.41 0.41 0.38 0.33 0.33 0.36 0.41 0.49 0.57 0.54 0.44 0.36 0.36 0.38 0.41 0.43 0.48 0.47 0.44 0.53 0.54 0.52 0.55 0.55 0.53 0.50 0.47 0.47 0.52 0.59 0.62 0.62 0.61 0.61 0.59 0.57 0.59 0.63
0.30 0.31 0.31 0.29 0.30 0.33 0.37 0.43 0.49 0.57 0.53 0.40 0.35 0.37 0.41 0.42 0.47 0.42 0.39 0.46 0.45 0.45 0.45 0.44 0.42 0.39 0.37 0.37 0.39 0.43 0.47 0.51 0.55 0.59 0.63 0.65 0.66 0.69
0.20 0.22 0.24 0.24 0.25 0.27 0.31 0.37 0.42 0.48 0.53 0.47 0.42 0.42 0.43 0.41 0.40 0.35 0.32 0.31 0.29 0.34 0.33 0.32 0.30 0.29 0.28 0.28 0.28 0.30 0.33 0.38 0.45 0.53 0.59 0.64 0.64 0.63
0.17 0.19 0.21 0.23 0.26 0.28 0.31 0.34 0.37 0.39 0.42 0.41 0.36 0.34 0.33 0.30 0.26 0.22 0.19 0.16 0.15 0.20 0.21 0.21 0.20 0.19 0.18 0.19 0.21 0.23 0.26 0.30 0.36 0.41 0.45 0.50 0.54 0.53
0.17 0.19 0.21 0.24 0.27 0.28 0.29 0.31 0.32 0.31 0.31 0.32 0.28 0.24 0.22 0.19 0.17 0.14 0.11 0.09 0.07 0.08 0.09 0.10 0.11 0.12 0.14 0.16 0.17 0.17 0.17 0.18 0.20 0.23 0.28 0.32 0.36 0.39
0.19 0.22 0.24 0.26 0.27 0.28 0.29 0.30 0.28 0.26 0.23 0.23 0.23 0.22 0.18 0.14 0.11 0.08 0.06 0.05 0.04 0.04 0.05 0.05 0.06 0.06 0.06 0.06 0.06 0.06 0.07 0.10 0.13 0.19 0.23 0.26 0.28 0.31
0.27 0.29 0.30 0.32 0.31 0.28 0.25 0.22 0.19 0.18 0.21 0.26 0.27 0.20 0.12 0.08 0.06 0.05 0.05 0.04 0.03 0.02 0.03 0.02 0.02 0.02 0.01 0.01 0.02 0.03 0.06 0.10 0.14 0.18 0.23 0.27 0.28 0.29
0.30 0.30 0.29 0.28 0.25 0.23 0.20 0.18 0.19 0.23 0.30 0.33 0.23 0.12 0.06 0.05 0.04 0.05 0.07 0.10 0.07 0.02 0.02 0.01 0.01 0.00 0.01 0.01 0.02 0.04 0.06 0.07 0.10 0.12 0.15 0.18 0.20 0.21
0.29 0.26 0.23 0.20 0.18 0.14 0.12 0.13 0.16 0.19 0.20 0.15 0.07 0.03 0.03 0.04 0.09 0.13 0.12 0.13 0.08 0.02 0.02 0.02 0.01 0.01 0.01 0.01 0.01 0.02 0.02 0.04 0.06 0.09 0.12 0.14 0.15 0.17
0.21 0.16 0.13 0.10 0.08 0.08 0.09 0.14 0.11 0.08 0.04 0.02 0.02 0.02 0.03 0.04 0.08 0.15 0.14 0.10 0.03 0.01 0.02 0.02 0.01 0.00 0.00 0.00 0.00 0.01 0.02 0.05 0.09 0.13 0.15 0.16 0.16 0.17
0.10 0.07 0.06 0.05 0.06 0.10 0.15 0.17 0.07 0.01 0.01 0.02 0.03 0.03 0.03 0.03 0.03 0.11 0.15 0.15 0.09 0.01 0.00 0.01 0.00 0.00 0.00 0.00 0.00 0.01 0.02 0.04 0.05 0.06 0.08 0.09 0.11 0.13
0.03 0.03 0.03 0.03 0.07 0.13 0.13 0.09 0.02 0.01 0.02 0.01 0.00 0.00 0.00 0.00 0.01 0.07 0.20 0.35 0.26 0.12 0.00 0.04 0.06 0.08 0.15 0.02 0.00 0.00 0.01 0.01 0.02 0.03 0.05 0.07 0.09 0.12
0.02 0.01 0.01 0.05 0.10 0.12 0.07 0.02 0.02 0.05 0.03 0.00 0.00 0.00 0.00 0.00 0.00 0.01 0.08 0.35 0.51 0.29 0.04 0.22 0.33 0.15 0.24 0.11 0.00 0.00 0.00 0.00 0.02 0.03 0.06 0.09 0.14 0.25
0.02 0.01 0.03 0.08 0.08 0.04 0.01 0.01 0.03 0.03 0.00 0.00 0.00 0.00 0.01 0.01 0.00 0.01 0.02 0.06 0.21 0.30 0.15 0.34 0.60 0.36 0.40 0.26 0.04 0.00 0.00 0.01 0.05 0.11 0.16 0.20 0.24 0.29
0.03 0.04 0.06 0.05 0.01 0.00 0.00 0.01 0.01 0.00 0.01 0.03 0.03 0.01 0.01 0.01 0.01 0.02 0.01 0.01 0.02 0.03 0.06 0.13 0.35 0.39 0.48 0.43 0.20 0.05 0.04 0.03 0.06 0.16 0.21 0.23 0.26 0.32
0.04 0.04 0.03 0.01 0.00 0.00 0.00 0.00 0.00 0.01 0.04 0.06 0.04 0.02 0.01 0.01 0.02 0.03 0.05 0.05 0.06 0.01 0.00 0.02 0.10 0.31 0.40 0.24 0.27 0.19 0.14 0.19 0.15 0.23 0.27 0.26 0.30 0.39
0.04 0.02 0.01 0.01 0.00 0.00 0.00 0.00 0.00 0.01 0.02 0.03 0.05 0.05 0.03 0.02 0.02 0.02 0.07 0.11 0.13 0.08 0.03 0.01 0.01 0.06 0.14 0.19 0.22 0.14 0.13 0.21 0.31 0.40 0.46 0.44 0.38 0.45
0.04 0.02 0.01 0.01 0.01 0.01 0.01 0.01 0.01 0.02 0.03 0.05 0.06 0.08 0.09 0.08 0.06 0.03 0.06 0.13 0.15 0.10 0.07 0.05 0.06 0.10 0.06 0.04 0.13 0.24 0.25 0.33 0.41 0.47 0.58 0.68 0.55 0.46
0.04 0.02 0.02 0.01 0.01 0.02 0.03 0.04 0.04 0.02 0.04 0.07 0.10 0.12 0.15 0.12 0.09 0.08 0.08 0.11 0.11 0.09 0.08 0.10 0.17 0.37 0.39 0.17 0.05 0.22 0.47 0.52 0.48 0.50 0.59 0.76 0.91 0.74
0.03 0.02 0.02 0.03 0.03 0.05 0.06 0.06 0.06 0.04 0.05 0.07 0.10 0.13 0.18 0.18 0.14 0.12 0.13 0.17 0.19 0.14 0.08 0.06 0.14 0.41 0.72 0.59 0.36 0.25 0.33 0.55 0.74 0.81 0.66 0.54 0.58 0.56
0.03 0.03 0.03 0.04 0.06 0.07 0.08 0.08 0.09 0.09 0.09 0.12 0.14 0.16 0.21 0.25 0.19 0.14 0.15 0.14 0.18 0.19 0.16 0.10 0.12 0.21 0.40 0.52 0.40 0.22 0.24 0.33 0.59 0.94 0.91 0.70 0.50 0.40
0.05 0.05 0.05 0.06 0.09 0.11 0.11 0.11 0.12 0.10 0.11 0.14 0.15 0.18 0.21 0.27 0.26 0.20 0.19 0.20 0.19 0.20 0.19 0.10 0.06 0.11 0.26 0.44 0.35 0.18 0.15 0.13 0.14 0.22 0.54 0.99 1.42 1.51
0.07 0.07 0.08 0.10 0.12 0.13 0.13 0.13 0.13 0.12 0.15 0.20 0.21 0.20 0.22 0.24 0.21 0.23 0.23 0.25 0.27 0.22 0.17 0.12 0.07 0.09 0.15 0.22 0.27 0.20 0.12 0.08 0.07 0.12 0.30 0.50 0.79 1.06

GEFSNE_prec_meanprecacc_096.txt.gz
Total_Precipitation_Accumulation
0.45 0.44 0.42 0.37 0.36 0.38 0.43 0.50 0.59 0.55 0.44 0.36 0.36 0.38 0.41 0.43 0.49 0.47 0.44 0.53 0.54 0.52 0.55 0.56 0.53 0.50 0.47 0.48 0.52 0.61 0.64 0.64 0.65 0.67 0.68 0.66 0.67 0.73
0.33 0.34 0.34 0.32 0.32 0.35 0.39 0.44 0.51 0.58 0.54 0.40 0.35 0.37 0.41 0.42 0.47 0.42 0.39 0.46 0.45 0.45 0.45 0.45 0.43 0.40 0.37 0.37 0.39 0.45 0.49 0.53 0.57 0.63 0.70 0.74 0.76 0.79
0.24 0.25 0.26 0.26 0.28 0.29 0.33 0.38 0.43 0.49 0.54 0.48 0.42 0.42 0.44 0.41 0.40 0.36 0.32 0.31 0.30 0.34 0.33 0.32 0.31 0.29 0.28 0.29 0.29 0.32 0.34 0.40 0.47 0.55 0.63 0.70 0.73 0.73
0.21 0.22 0.23 0.25 0.27 0.29 0.32 0.35 0.38 0.40 0.43 0.42 0.37 0.34 0.33 0.30 0.26 0.22 0.19 0.16 0.15 0.21 0.21 0.21 0.20 0.19 0.19 0.20 0.22 0.26 0.28 0.32 0.37 0.43 0.47 0.54 0.60 0.63
0.20 0.21 0.23 0.25 0.28 0.29 0.30 0.31 0.32 0.32 0.32 0.32 0.28 0.24 0.22 0.19 0.17 0.14 0.11 0.09 0.07 0.09 0.10 0.10 0.11 0.12 0.14 0.16 0.18 0.18 0.19 0.19 0.21 0.24 0.30 0.36 0.41 0.45
0.20 0.23 0.25 0.27 0.28 0.29 0.30 0.30 0.29 0.26 0.24 0.23 0.24 0.22 0.18 0.14 0.11 0.08 0.06 0.05 0.04 0.04 0.05 0.06 0.06 0.07 0.06 0.06 0.07 0.07 0.08 0.10 0.14 0.19 0.25 0.29 0.33 0.38
0.27 0.29 0.30 0.32 0.31 0.28 0.25 0.22 0.19 0.19 0.21 0.26 0.27 0.20 0.12 0.08 0.06 0.05 0.05 0.04 0.03 0.03 0.03 0.03 0.02 0.02 0.02 0.02 0.02 0.04 0.06 0.10 0.14 0.19 0.25 0.30 0.32 0.36
0.31 0.31 0.30 0.29 0.25 0.23 0.21 0.19 0.19 0.23 0.30 0.33 0.23 0.12 0.06 0.05 0.04 0.05 0.08 0.10 0.07 0.02 0.02 0.01 0.01 0.01 0.01 0.01 0.02 0.04 0.06 0.08 0.10 0.13 0.17 0.21 0.25 0.28
0.30 0.27 0.24 0.21 0.19 0.14 0.13 0.14 0.16 0.19 0.20 0.15 0.07 0.03 0.04 0.04 0.09 0.14 0.12 0.13 0.09 0.02 0.03 0.03 0.01 0.01 0.01 0.01 0.01 0.02 0.03 0.04 0.06 0.10 0.13 0.16 0.19 0.22
0.22 0.17 0.14 0.11 0.09 0.09 0.10 0.14 0.12 0.08 0.04 0.02 0.02 0.02 0.03 0.04 0.08 0.15 0.14 0.10 0.04 0.01 0.02 0.03 0.01 0.00 0.00 0.00 0.00 0.01 0.02 0.05 0.10 0.14 0.16 0.17 0.18 0.21
0.11 0.08 0.07 0.06 0.07 0.11 0.15 0.17 0.07 0.02 0.01 0.02 0.03 0.03 0.03 0.03 0.03 0.11 0.15 0.15 0.09 0.01 0.00 0.01 0.00 0.00 0.00 0.00 0.00 0.01 0.02 0.04 0.05 0.07 0.09 0.11 0.12 0.15
0.05 0.04 0.04 0.05 0.08 0.14 0.14 0.09 0.02 0.01 0.02 0.01 0.00 0.00 0.00 0.00 0.01 0.07 0.20 0.36 0.26 0.12 0.00 0.04 0.06 0.08 0.15 0.02 0.00 0.00 0.01 0.02 0.03 0.04 0.06 0.08 0.10 0.13
0.03 0.03 0.03 0.07 0.12 0.13 0.08 0.02 0.02 0.05 0.03 0.01 0.00 0.00 0.00 0.00 0.00 0.01 0.08 0.35 0.51 0.29 0.04 0.22 0.33 0.15 0.24 0.11 0.00 0.00 0.00 0.01 0.02 0.04 0.07 0.11 0.16 0.26
0.04 0.03 0.05 0.10 0.11 0.06 0.02 0.02 0.04 0.03 0.00 0.00 0.01 0.01 0.01 0.01 0.00 0.01 0.02 0.06 0.21 0.30 0.15 0.34 0.60 0.36 0.40 0.26 0.04 0.00 0.00 0.01 0.05 0.12 0.16 0.21 0.25 0.30
0.07 0.07 0.09 0.08 0.04 0.02 0.01 0.02 0.01 0.00 0.01 0.03 0.03 0.01 0.01 0.01 0.01 0.02 0.01 0.01 0.02 0.03 0.06 0.13 0.35 0.39 0.48 0.43 0.20 0.05 0.04 0.03 0.06 0.16 0.21 0.23 0.26 0.32
0.09 0.09 0.07 0.05 0.04 0.03 0.02 0.01 0.01 0.01 0.04 0.06 0.04 0.02 0.01 0.01 0.02 0.03 0.05 0.05 0.06 0.01 0.00 0.02 0.10 0.31 0.40 0.24 0.27 0.19 0.14 0.19 0.15 0.23 0.27 0.26 0.30 0.39
0.13 0.09 0.07 0.06 0.04 0.03 0.02 0.02 0.01 0.01 0.03 0.03 0.05 0.05 0.03 0.02 0.02 0.02 0.07 0.11 0.13 0.08 0.03 0.01 0.01 0.06 0.14 0.19 0.22 0.14 0.13 0.21 0.31 0.40 0.46 0.44 0.38 0.45
0.17 0.11 0.07 0.05 0.04 0.03 0.03 0.03 0.02 0.03 0.04 0.06 0.07 0.08 0.10 0.08 0.06 0.03 0.06 0.13 0.15 0.10 0.07 0.05 0.06 0.10 0.06 0.04 0.13 0.24 0.25 0.33 0.41 0.47 0.58 0.68 0.55 0.46
0.18 0.11 0.06 0.05 0.04 0.04 0.05 0.06 0.05 0.03 0.06 0.09 0.11 0.13 0.15 0.12 0.10 0.09 0.08 0.11 0.11 0.09 0.08 0.10 0.17 0.37 0.39 0.17 0.05 0.22 0.47 0.52 0.48 0.50 0.59 0.76 0.91 0.74
0.13 0.09 0.06 0.06 0.06 0.08 0.08 0.09 0.08 0.07 0.07 0.09 0.11 0.14 0.18 0.19 0.15 0.12 0.13 0.17 0.19 0.14 0.08 0.06 0.14 0.42 0.72 0.59 0.36 0.25 0.33 0.55 0.74 0.81 0.66 0.54 0.58 0.56
0.09 0.07 0.07 0.09 0.11 0.12 0.12 0.11 0.12 0.12 0.11 0.15 0.16 0.17 0.22 0.26 0.20 0.14 0.15 0.15 0.18 0.19 0.16 0.10 0.12 0.22 0.40 0.52 0.40 0.22 0.24 0.33 0.59 0.94 0.91 0.70 0.50 0.40
0.11 0.11 0.11 0.13 0.16 0.18 0.17 0.16 0.15 0.13 0.14 0.17 0.17 0.20 0.22 0.28 0.28 0.21 0.20 0.21 0.19 0.20 0.19 0.10 0.07 0.12 0.26 0.44 0.35 0.18 0.15 0.13 0.14 0.22 0.54 0.99 1.42 1.51
0.14 0.15 0.16 0.18 0.21 0.22 0.21 0.18 0.17 0.15 0.17 0.22 0.24 0.23 0.25 0.26 0.23 0.24 0.25 0.27 0.28 0.23 0.18 0.13 0.08 0.10 0.15 0.22 0.27 0.20 0.12 0.08 0.07 0.12 0.30 0.50 0.79 1.06

GEFSNE_prec_meanprecacc_102.txt.gz
Total_Precipitation_Accumulation
0.53 0.52 0.48 0.43 0.42 0.43 0.48 0.55 0.64 0.59 0.46 0.37 0.36 0.39 0.41 0.43 0.49 0.47 0.44 0.53 0.54 0.53 0.55 0.56 0.53 0.51 0.48 0.49 0.53 0.61 0.65 0.65 0.66 0.69 0.71 0.71 0.73 0.81
0.43 0.44 0.42 0.39 0.38 0.40 0.44 0.48 0.55 0.61 0.56 0.41 0.36 0.38 0.41 0.43 0.48 0.42 0.39 0.46 0.45 0.45 0.45 0.45 0.43 0.40 0.38 0.38 0.40 0.46 0.50 0.54 0.58 0.64 0.72 0.78 0.82 0.88
0.32 0.33 0.34 0.34 0.34 0.34 0.37 0.41 0.46 0.51 0.56 0.49 0.43 0.43 0.44 0.42 0.41 0.36 0.32 0.31 0.30 0.35 0.34 0.32 0.31 0.29 0.28 0.29 0.30 0.33 0.36 0.41 0.48 0.56 0.64 0.73 0.78 0.80
0.31 0.31 0.31 0.31 0.33 0.34 0.36 0.39 0.40 0.42 0.44 0.43 0.37 0.35 0.34 0.31 0.27 0.23 0.19 0.16 0.15 0.21 0.21 0.21 0.20 0.19 0.19 0.20 0.24 0.28 0.30 0.33 0.38 0.43 0.48 0.56 0.64 0.68
0.30 0.31 0.32 0.33 0.34 0.34 0.35 0.35 0.35 0.34 0.34 0.33 0.29 0.25 0.22 0.20 0.17 0.14 0.11 0.09 0.08 0.09 0.10 0.11 0.11 0.12 0.15 0.17 0.19 0.20 0.21 0.21 0.22 0.25 0.31 0.38 0.44 0.51
0.27 0.30 0.32 0.33 0.34 0.35 0.35 0.35 0.33 0.29 0.27 0.26 0.26 0.24 0.20 0.15 0.12 0.09 0.07 0.05 0.05 0.04 0.06 0.06 0.07 0.07 0.07 0.07 0.08 0.09 0.10 0.13 0.17 0.21 0.26 0.31 0.35 0.42
0.33 0.34 0.35 0.37 0.36 0.33 0.29 0.25 0.22 0.21 0.24 0.29 0.29 0.22 0.13 0.09 0.07 0.05 0.05 0.04 0.03 0.03 0.03 0.03 0.03 0.02 0.02 0.02 0.03 0.04 0.07 0.11 0.16 0.21 0.26 0.31 0.35 0.40
0.36 0.35 0.33 0.32 0.29 0.27 0.24 0.22 0.22 0.26 0.32 0.34 0.25 0.13 0.07 0.05 0.05 0.06 0.08 0.10 0.07 0.02 0.02 0.01 0.01 0.01 0.01 0.01 0.03 0.04 0.06 0.08 0.11 0.14 0.17 0.22 0.27 0.32
0.33 0.30 0.26 0.23 0.21 0.16 0.15 0.16 0.19 0.23 0.23 0.17 0.08 0.04 0.04 0.05 0.10 0.15 0.13 0.14 0.09 0.02 0.03 0.03 0.01 0.01 0.01 0.01 0.02 0.02 0.03 0.04 0.07 0.10 0.13 0.17 0.20 0.25
0.24 0.19 0.15 0.12 0.10 0.10 0.11 0.15 0.13 0.10 0.06 0.04 0.03 0.03 0.04 0.05 0.09 0.16 0.15 0.11 0.04 0.01 0.02 0.03 0.01 0.00 0.00 0.00 0.01 0.01 0.02 0.05 0.10 0.14 0.16 0.18 0.20 0.23
0.13 0.10 0.08 0.07 0.08 0.13 0.17 0.18 0.08 0.03 0.02 0.03 0.05 0.04 0.04 0.04 0.04 0.11 0.15 0.16 0.09 0.01 0.00 0.01 0.00 0.00 0.00 0.00 0.00 0.01 0.02 0.04 0.05 0.07 0.10 0.12 0.13 0.17
0.07 0.06 0.06 0.07 0.10 0.16 0.16 0.11 0.04 0.02 0.03 0.03 0.02 0.01 0.01 0.01 0.02 0.08 0.20 0.36 0.27 0.12 0.00 0.04 0.06 0.08 0.15 0.02 0.00 0.00 0.01 0.02 0.03 0.04 0.07 0.09 0.12 0.14
0.06 0.05 0.05 0.11 0.17 0.18 0.12 0.06 0.05 0.08 0.06 0.03 0.02 0.02 0.01 0.01 0.01 0.02 0.09 0.36 0.52 0.30 0.04 0.22 0.33 0.15 0.24 0.11 0.00 0.00 0.00 0.01 0.02 0.04 0.08 0.12 0.17 0.27
0.08 0.06 0.08 0.15 0.16 0.12 0.09 0.08 0.10 0.09 0.04 0.03 0.03 0.03 0.02 0.02 0.01 0.01 0.02 0.07 0.21 0.30 0.15 0.34 0.60 0.36 0.40 0.26 0.05 0.00 0.00 0.01 0.05 0.12 0.17 0.21 0.26 0.31
0.13 0.12 0.14 0.14 0.12 0.10 0.09 0.09 0.08 0.07 0.06 0.06 0.05 0.03 0.03 0.03 0.03 0.03 0.02 0.02 0.02 0.04 0.06 0.13 0.35 0.39 0.48 0.43 0.20 0.05 0.04 0.03 0.06 0.16 0.21 0.24 0.27 0.33
0.17 0.16 0.15 0.13 0.12 0.11 0.10 0.09 0.07 0.06 0.08 0.10 0.07 0.04 0.04 0.04 0.04 0.04 0.06 0.06 0.07 0.01 0.00 0.03 0.10 0.31 0.40 0.24 0.27 0.19 0.14 0.19 0.15 0.23 0.27 0.27 0.31 0.40
0.23 0.20 0.18 0.16 0.14 0.11 0.09 0.08 0.07 0.07 0.08 0.08 0.09 0.09 0.07 0.05 0.04 0.04 0.08 0.11 0.14 0.08 0.03 0.01 0.01 0.06 0.14 0.19 0.22 0.14 0.13 0.21 0.31 0.40 0.46 0.44 0.39 0.46
0.32 0.23 0.17 0.14 0.13 0.11 0.10 0.10 0.09 0.09 0.09 0.11 0.12 0.13 0.14 0.12 0.09 0.05 0.07 0.14 0.16 0.10 0.07 0.05 0.06 0.10 0.06 0.04 0.13 0.24 0.25 0.33 0.41 0.47 0.58 0.68 0.55 0.46
0.31 0.22 0.15 0.12 0.11 0.12 0.13 0.13 0.13 0.11 0.13 0.16 0.17 0.18 0.19 0.15 0.12 0.10 0.09 0.12 0.11 0.09 0.08 0.10 0.17 0.37 0.39 0.17 0.05 0.22 0.47 0.52 0.48 0.50 0.59 0.77 0.91 0.74
0.23 0.17 0.14 0.12 0.13 0.16 0.17 0.17 0.17 0.17 0.17 0.17 0.18 0.19 0.23 0.22 0.17 0.14 0.14 0.17 0.19 0.14 0.09 0.06 0.14 0.42 0.73 0.59 0.36 0.25 0.33 0.55 0.74 0.81 0.66 0.54 0.58 0.56
0.15 0.13 0.14 0.16 0.19 0.21 0.21 0.22 0.23 0.23 0.22 0.23 0.22 0.22 0.26 0.30 0.22 0.16 0.17 0.16 0.19 0.20 0.16 0.10 0.12 0.22 0.40 0.52 0.40 0.22 0.24 0.33 0.59 0.94 0.91 0.70 0.50 0.40
0.17 0.18 0.20 0.22 0.27 0.29 0.29 0.28 0.27 0.25 0.24 0.25 0.24 0.25 0.26 0.32 0.30 0.24 0.22 0.23 0.21 0.21 0.20 0.11 0.07 0.13 0.27 0.45 0.35 0.18 0.15 0.13 0.14 0.22 0.54 0.99 1.42 1.51
0.21 0.23 0.25 0.28 0.32 0.34 0.33 0.30 0.28 0.25 0.26 0.30 0.30 0.29 0.29 0.30 0.26 0.27 0.27 0.29 0.30 0.24 0.19 0.14 0.09 0.11 0.16 0.23 0.28 0.20 0.12 0.08 0.07 0.12 0.30 0.50 0.79 1.06

GEFSNE_prec_meanprecacc_108.txt.gz
Total_Precipitation_Accumulation
0.60 0.58 0.54 0.48 0.47 0.48 0.52 0.60 0.69 0.64 0.49 0.39 0.38 0.40 0.43 0.45 0.50 0.48 0.45 0.54 0.55 0.53 0.55 0.56 0.54 0.51 0.48 0.49 0.53 0.61 0.65 0.65 0.66 0.70 0.72 0.73 0.75 0.83
0.53 0.53 0.50 0.46 0.46 0.47 0.50 0.55 0.61 0.67 0.61 0.44 0.38 0.40 0.43 0.44 0.49 0.43 0.40 0.47 0.46 0.45 0.46 0.45 0.43 0.40 0.38 0.38 0.40 0.46 0.51 0.55 0.59 0.64 0.73 0.79 0.83 0.89
0.43 0.43 0.43 0.43 0.43 0.44 0.46 0.50 0.54 0.60 0.64 0.54 0.47 0.47 0.48 0.45 0.43 0.37 0.33 0.32 0.30 0.35 0.34 0.32 0.31 0.30 0.29 0.29 0.30 0.34 0.36 0.41 0.49 0.56 0.65 0.74 0.80 0.81
0.39 0.39 0.38 0.39 0.40 0.41 0.44 0.47 0.49 0.50 0.54 0.51 0.43 0.40 0.38 0.35 0.31 0.26 0.21 0.18 0.16 0.23 0.22 0.22 0.21 0.19 0.19 0.20 0.24 0.29 0.31 0.33 0.38 0.44 0.49 0.57 0.65 0.70
0.39 0.40 0.41 0.42 0.44 0.43 0.43 0.44 0.44 0.44 0.44 0.44 0.38 0.32 0.28 0.24 0.22 0.18 0.15 0.12 0.10 0.12 0.12 0.12 0.12 0.13 0.15 0.17 0.20 0.22 0.22 0.21 0.23 0.27 0.32 0.39 0.45 0.52
0.37 0.39 0.40 0.41 0.41 0.42 0.43 0.44 0.43 0.40 0.38 0.38 0.37 0.32 0.27 0.21 0.19 0.15 0.12 0.10 0.08 0.07 0.08 0.08 0.08 0.08 0.07 0.07 0.08 0.10 0.12 0.14 0.18 0.23 0.28 0.33 0.36 0.43
0.41 0.42 0.43 0.45 0.45 0.42 0.38 0.35 0.32 0.33 0.36 0.40 0.40 0.31 0.22 0.17 0.14 0.11 0.11 0.10 0.08 0.06 0.06 0.05 0.04 0.03 0.02 0.02 0.03 0.05 0.08 0.12 0.17 0.22 0.27 0.32 0.37 0.41
0.44 0.43 0.42 0.42 0.39 0.37 0.34 0.32 0.33 0.36 0.43 0.45 0.35 0.22 0.14 0.11 0.10 0.12 0.14 0.17 0.13 0.05 0.04 0.04 0.03 0.02 0.02 0.02 0.03 0.05 0.07 0.09 0.11 0.15 0.18 0.23 0.28 0.33
0.42 0.38 0.35 0.33 0.31 0.25 0.23 0.24 0.26 0.30 0.30 0.24 0.16 0.12 0.11 0.11 0.16 0.21 0.19 0.18 0.12 0.05 0.05 0.05 0.03 0.02 0.02 0.01 0.02 0.02 0.03 0.05 0.07 0.11 0.14 0.17 0.21 0.26
0.32 0.27 0.23 0.20 0.18 0.18 0.19 0.23 0.20 0.16 0.13 0.10 0.09 0.09 0.10 0.11 0.16 0.22 0.21 0.17 0.09 0.05 0.04 0.05 0.02 0.01 0.01 0.01 0.01 0.01 0.03 0.06 0.10 0.14 0.17 0.18 0.20 0.23
0.23 0.19 0.17 0.14 0.16 0.22 0.24 0.25 0.15 0.09 0.08 0.09 0.11 0.10 0.10 0.09 0.09 0.16 0.21 0.21 0.13 0.04 0.03 0.02 0.02 0.01 0.01 0.01 0.01 0.01 0.03 0.04 0.06 0.08 0.10 0.12 0.14 0.18
0.16 0.16 0.17 0.16 0.19 0.25 0.23 0.18 0.11 0.08 0.09 0.08 0.08 0.07 0.06 0.06 0.07 0.11 0.24 0.39 0.30 0.14 0.02 0.06 0.07 0.10 0.16 0.02 0.00 0.00 0.01 0.02 0.03 0.05 0.07 0.10 0.13 0.15
0.13 0.12 0.13 0.20 0.25 0.26 0.20 0.13 0.12 0.15 0.12 0.09 0.08 0.08 0.07 0.06 0.06 0.06 0.13 0.40 0.55 0.32 0.06 0.24 0.34 0.16 0.25 0.11 0.01 0.00 0.00 0.01 0.02 0.04 0.08 0.12 0.18 0.28
0.15 0.13 0.15 0.23 0.24 0.20 0.17 0.15 0.17 0.16 0.11 0.10 0.10 0.09 0.07 0.06 0.06 0.06 0.07 0.12 0.25 0.34 0.18 0.36 0.62 0.37 0.41 0.27 0.05 0.00 0.00 0.01 0.05 0.12 0.17 0.22 0.26 0.32
0.18 0.19 0.21 0.21 0.18 0.17 0.16 0.16 0.16 0.14 0.13 0.13 0.11 0.08 0.08 0.08 0.09 0.09 0.09 0.08 0.07 0.08 0.10 0.16 0.37 0.41 0.49 0.44 0.20 0.05 0.04 0.03 0.06 0.16 0.21 0.24 0.27 0.33
0.23 0.22 0.21 0.19 0.18 0.17 0.16 0.16 0.15 0.13 0.15 0.16 0.13 0.10 0.11 0.12 0.12 0.13 0.14 0.13 0.13 0.06 0.04 0.05 0.12 0.33 0.41 0.25 0.27 0.19 0.14 0.19 0.15 0.23 0.27 0.27 0.31 0.40
0.29 0.25 0.23 0.21 0.19 0.17 0.16 0.15 0.14 0.14 0.15 0.15 0.17 0.17 0.15 0.14 0.13 0.12 0.16 0.19 0.20 0.12 0.06 0.04 0.04 0.08 0.15 0.19 0.22 0.14 0.13 0.21 0.32 0.40 0.46 0.45 0.39 0.46
0.37 0.29 0.22 0.20 0.19 0.17 0.17 0.17 0.17 0.17 0.17 0.20 0.21 0.22 0.23 0.21 0.18 0.14 0.15 0.20 0.21 0.15 0.11 0.08 0.09 0.12 0.07 0.04 0.13 0.24 0.26 0.33 0.41 0.47 0.58 0.69 0.55 0.46
0.36 0.26 0.19 0.16 0.16 0.18 0.19 0.21 0.21 0.20 0.23 0.27 0.28 0.29 0.30 0.26 0.22 0.19 0.17 0.18 0.17 0.13 0.12 0.13 0.20 0.39 0.40 0.18 0.05 0.23 0.47 0.52 0.48 0.50 0.59 0.77 0.91 0.74
0.27 0.20 0.17 0.16 0.17 0.21 0.23 0.25 0.26 0.27 0.29 0.29 0.30 0.31 0.34 0.33 0.27 0.22 0.20 0.23 0.24 0.19 0.13 0.10 0.17 0.43 0.74 0.60 0.37 0.26 0.34 0.55 0.74 0.81 0.66 0.54 0.59 0.57
0.18 0.17 0.18 0.20 0.24 0.26 0.28 0.29 0.32 0.33 0.33 0.34 0.34 0.34 0.38 0.41 0.32 0.23 0.24 0.22 0.25 0.24 0.20 0.13 0.14 0.23 0.42 0.53 0.40 0.22 0.25 0.33 0.59 0.94 0.91 0.70 0.50 0.40
0.19 0.21 0.24 0.27 0.32 0.36 0.36 0.36 0.36 0.34 0.34 0.37 0.36 0.36 0.37 0.42 0.40 0.31 0.29 0.29 0.25 0.25 0.23 0.14 0.11 0.15 0.28 0.45 0.36 0.19 0.16 0.13 0.14 0.22 0.54 0.99 1.42 1.51
0.24 0.26 0.29 0.33 0.38 0.41 0.41 0.39 0.37 0.33 0.34 0.40 0.41 0.40 0.40 0.40 0.35 0.36 0.35 0.35 0.35 0.29 0.23 0.18 0.12 0.13 0.17 0.24 0.29 0.21 0.13 0.09 0.08 0.12 0.30 0.50 0.79 1.06

GEFSNE_prec_meanprecacc_114.txt.gz
Total_Precipitation_Accumulation
0.71 0.69 0.64 0.58 0.56 0.56 0.59 0.67 0.76 0.70 0.53 0.40 0.39 0.41 0.44 0.46 0.52 0.50 0.46 0.56 0.57 0.55 0.58 0.58 0.55 0.52 0.48 0.49 0.54 0.62 0.66 0.66 0.66 0.70 0.72 0.73 0.76 0.84
0.68 0.67 0.63 0.58 0.57 0.57 0.60 0.65 0.72 0.79 0.69 0.48 0.40 0.42 0.45 0.46 0.52 0.45 0.42 0.49 0.48 0.47 0.47 0.47 0.44 0.41 0.39 0.39 0.41 0.47 0.51 0.55 0.59 0.65 0.73 0.80 0.83 0.90
0.63 0.62 0.61 0.58 0.58 0.57 0.58 0.61 0.64 0.69 0.73 0.59 0.49 0.49 0.50 0.47 0.46 0.40 0.36 0.34 0.33 0.38 0.36 0.35 0.33 0.31 0.30 0.30 0.31 0.34 0.37 0.42 0.49 0.57 0.65 0.74 0.80 0.82
0.56 0.57 0.57 0.56 0.56 0.55 0.57 0.59 0.59 0.60 0.63 0.58 0.47 0.43 0.41 0.38 0.34 0.29 0.25 0.21 0.20 0.27 0.26 0.25 0.24 0.22 0.21 0.22 0.25 0.30 0.32 0.34 0.39 0.44 0.49 0.58 0.65 0.70
0.52 0.53 0.54 0.57 0.59 0.57 0.56 0.56 0.54 0.53 0.53 0.52 0.43 0.36 0.32 0.28 0.26 0.22 0.18 0.16 0.14 0.17 0.18 0.18 0.18 0.18 0.19 0.20 0.22 0.24 0.24 0.23 0.24 0.28 0.33 0.39 0.45 0.52
0.54 0.55 0.54 0.55 0.55 0.54 0.55 0.55 0.53 0.50 0.48 0.47 0.45 0.39 0.33 0.28 0.25 0.21 0.17 0.14 0.12 0.11 0.14 0.14 0.15 0.15 0.13 0.11 0.11 0.13 0.15 0.15 0.19 0.24 0.29 0.33 0.36 0.43
0.56 0.57 0.57 0.59 0.58 0.55 0.50 0.47 0.44 0.44 0.46 0.50 0.49 0.39 0.29 0.24 0.21 0.18 0.18 0.17 0.16 0.14 0.13 0.11 0.10 0.09 0.08 0.08 0.08 0.09 0.12 0.15 0.19 0.23 0.27 0.33 0.37 0.41
0.57 0.54 0.52 0.53 0.49 0.47 0.44 0.41 0.42 0.46 0.54 0.56 0.46 0.32 0.23 0.19 0.19 0.21 0.23 0.26 0.21 0.11 0.11 0.10 0.09 0.08 0.06 0.06 0.08 0.10 0.12 0.13 0.14 0.16 0.19 0.23 0.28 0.33
0.55 0.50 0.46 0.42 0.41 0.35 0.35 0.36 0.37 0.40 0.40 0.34 0.26 0.20 0.19 0.19 0.26 0.31 0.28 0.26 0.18 0.10 0.12 0.12 0.09 0.09 0.07 0.06 0.08 0.07 0.08 0.09 0.11 0.13 0.15 0.18 0.21 0.27
0.43 0.38 0.34 0.30 0.28 0.28 0.30 0.35 0.32 0.28 0.24 0.21 0.18 0.16 0.17 0.19 0.25 0.33 0.32 0.28 0.18 0.12 0.11 0.12 0.08 0.07 0.06 0.06 0.07 0.06 0.07 0.09 0.13 0.17 0.18 0.19 0.21 0.24
0.32 0.28 0.26 0.24 0.27 0.32 0.34 0.35 0.25 0.19 0.19 0.21 0.22 0.21 0.20 0.19 0.20 0.28 0.33 0.33 0.24 0.12 0.09 0.09 0.07 0.07 0.06 0.06 0.06 0.06 0.07 0.08 0.08 0.10 0.12 0.13 0.15 0.18
0.23 0.23 0.26 0.25 0.29 0.35 0.33 0.28 0.21 0.17 0.18 0.19 0.20 0.19 0.18 0.18 0.20 0.22 0.33 0.50 0.39 0.22 0.07 0.10 0.12 0.14 0.22 0.07 0.04 0.04 0.04 0.05 0.05 0.07 0.09 0.11 0.14 0.16
0.17 0.18 0.21 0.30 0.35 0.37 0.31 0.23 0.23 0.25 0.22 0.20 0.20 0.20 0.19 0.18 0.18 0.17 0.23 0.50 0.65 0.41 0.12 0.29 0.39 0.21 0.30 0.15 0.04 0.04 0.03 0.03 0.04 0.06 0.09 0.14 0.19 0.29
0.18 0.17 0.20 0.31 0.33 0.30 0.27 0.26 0.30 0.29 0.23 0.24 0.24 0.21 0.18 0.16 0.16 0.16 0.17 0.22 0.35 0.42 0.26 0.45 0.70 0.43 0.47 0.32 0.09 0.04 0.03 0.03 0.08 0.14 0.18 0.23 0.28 0.33
0.21 0.22 0.25 0.27 0.25 0.25 0.26 0.28 0.27 0.24 0.23 0.24 0.23 0.20 0.18 0.18 0.19 0.21 0.20 0.19 0.18 0.17 0.19 0.25 0.46 0.49 0.57 0.51 0.26 0.09 0.07 0.05 0.08 0.18 0.23 0.25 0.28 0.34
0.25 0.25 0.24 0.23 0.23 0.23 0.24 0.24 0.23 0.22 0.25 0.27 0.24 0.21 0.21 0.23 0.24 0.24 0.25 0.24 0.24 0.17 0.14 0.14 0.21 0.42 0.51 0.33 0.34 0.25 0.18 0.22 0.17 0.24 0.29 0.28 0.33 0.42
0.32 0.28 0.26 0.24 0.23 0.21 0.21 0.21 0.21 0.22 0.24 0.24 0.27 0.28 0.26 0.25 0.24 0.23 0.27 0.30 0.31 0.22 0.16 0.13 0.14 0.18 0.25 0.28 0.30 0.20 0.18 0.25 0.34 0.42 0.47 0.46 0.40 0.48
0.40 0.32 0.25 0.23 0.22 0.21 0.20 0.22 0.23 0.24 0.25 0.28 0.30 0.32 0.33 0.32 0.29 0.24 0.25 0.31 0.32 0.24 0.21 0.19 0.20 0.23 0.18 0.13 0.20 0.30 0.31 0.38 0.45 0.49 0.59 0.70 0.57 0.48
0.39 0.29 0.22 0.19 0.19 0.21 0.23 0.25 0.26 0.25 0.28 0.34 0.37 0.39 0.41 0.37 0.33 0.31 0.28 0.29 0.28 0.24 0.23 0.24 0.31 0.50 0.50 0.25 0.11 0.28 0.52 0.56 0.51 0.53 0.60 0.78 0.92 0.75
0.29 0.23 0.20 0.20 0.21 0.24 0.27 0.29 0.30 0.31 0.33 0.35 0.37 0.40 0.44 0.44 0.39 0.33 0.31 0.34 0.35 0.30 0.24 0.21 0.27 0.52 0.82 0.67 0.44 0.32 0.38 0.58 0.77 0.83 0.68 0.55 0.60 0.58
0.21 0.20 0.22 0.25 0.29 0.31 0.32 0.34 0.36 0.38 0.37 0.39 0.40 0.41 0.46 0.51 0.43 0.34 0.34 0.33 0.36 0.36 0.30 0.21 0.22 0.33 0.52 0.63 0.49 0.28 0.30 0.36 0.61 0.96 0.92 0.71 0.51 0.41
0.22 0.24 0.27 0.32 0.37 0.41 0.41 0.41 0.41 0.39 0.39 0.41 0.41 0.42 0.45 0.51 0.49 0.41 0.39 0.39 0.35 0.34 0.32 0.23 0.21 0.26 0.37 0.52 0.41 0.23 0.20 0.17 0.17 0.24 0.56 1.01 1.43 1.52
0.27 0.30 0.33 0.37 0.42 0.46 0.46 0.44 0.42 0.38 0.38 0.44 0.47 0.46 0.47 0.49 0.44 0.45 0.44 0.45 0.45 0.39 0.33 0.27 0.22 0.21 0.24 0.29 0.33 0.25 0.17 0.13 0.11 0.14 0.32 0.51 0.80 1.07

GEFSNE_prec_meanprecacc_120.txt.gz
Total_Precipitation_Accumulation
0.87 0.85 0.81 0.73 0.72 0.71 0.73 0.80 0.89 0.80 0.59 0.43 0.41 0.43 0.46 0.48 0.54 0.51 0.47 0.57 0.58 0.56 0.59 0.59 0.57 0.54 0.50 0.51 0.55 0.64 0.67 0.68 0.68 0.71 0.74 0.75 0.77 0.85
0.83 0.84 0.82 0.75 0.72 0.72 0.74 0.79 0.86 0.92 0.79 0.52 0.43 0.45 0.48 0.49 0.54 0.47 0.43 0.51 0.50 0.49 0.49 0.48 0.47 0.44 0.42 0.42 0.43 0.49 0.53 0.57 0.60 0.66 0.75 0.81 0.85 0.91
0.77 0.78 0.78 0.77 0.78 0.77 0.76 0.79 0.82 0.87 0.89 0.67 0.55 0.54 0.55 0.53 0.51 0.44 0.39 0.37 0.35 0.40 0.38 0.37 0.35 0.34 0.33 0.33 0.34 0.37 0.39 0.44 0.51 0.59 0.67 0.76 0.82 0.83
0.68 0.71 0.71 0.72 0.74 0.75 0.78 0.80 0.80 0.80 0.83 0.73 0.56 0.49 0.48 0.44 0.40 0.35 0.29 0.25 0.22 0.29 0.29 0.27 0.26 0.25 0.24 0.24 0.28 0.32 0.34 0.36 0.41 0.47 0.52 0.60 0.67 0.72
0.62 0.64 0.67 0.72 0.76 0.75 0.76 0.76 0.74 0.73 0.74 0.70 0.56 0.43 0.38 0.35 0.33 0.28 0.23 0.19 0.16 0.19 0.20 0.20 0.19 0.20 0.22 0.23 0.25 0.26 0.26 0.25 0.26 0.30 0.35 0.42 0.48 0.54
0.63 0.64 0.65 0.67 0.69 0.71 0.74 0.74 0.71 0.69 0.67 0.67 0.61 0.51 0.43 0.37 0.36 0.31 0.25 0.19 0.16 0.14 0.16 0.16 0.17 0.17 0.16 0.15 0.14 0.16 0.18 0.18 0.21 0.26 0.32 0.36 0.40 0.46
0.63 0.64 0.66 0.70 0.71 0.69 0.67 0.66 0.65 0.66 0.68 0.72 0.68 0.55 0.42 0.36 0.33 0.28 0.27 0.25 0.22 0.18 0.17 0.15 0.13 0.11 0.10 0.11 0.11 0.12 0.15 0.19 0.23 0.26 0.31 0.36 0.40 0.45
0.63 0.60 0.59 0.62 0.60 0.60 0.58 0.56 0.60 0.66 0.73 0.75 0.62 0.46 0.33 0.28 0.27 0.30 0.33 0.36 0.30 0.17 0.15 0.15 0.13 0.12 0.09 0.09 0.12 0.15 0.16 0.18 0.19 0.21 0.23 0.27 0.32 0.37
0.60 0.55 0.51 0.48 0.48 0.41 0.43 0.46 0.48 0.53 0.54 0.46 0.37 0.30 0.26 0.26 0.33 0.40 0.37 0.35 0.26 0.16 0.19 0.20 0.15 0.14 0.11 0.11 0.13 0.13 0.13 0.14 0.16 0.19 0.20 0.22 0.25 0.30
0.47 0.42 0.38 0.34 0.32 0.32 0.34 0.41 0.39 0.36 0.34 0.30 0.26 0.23 0.22 0.24 0.31 0.41 0.41 0.38 0.29 0.21 0.20 0.21 0.15 0.12 0.11 0.11 0.13 0.13 0.12 0.15 0.19 0.23 0.24 0.24 0.24 0.27
0.35 0.32 0.31 0.29 0.33 0.38 0.39 0.41 0.31 0.25 0.27 0.31 0.33 0.30 0.28 0.28 0.29 0.38 0.46 0.49 0.38 0.22 0.17 0.17 0.15 0.13 0.13 0.12 0.12 0.14 0.14 0.14 0.14 0.16 0.18 0.19 0.20 0.22
0.26 0.26 0.30 0.29 0.34 0.41 0.38 0.33 0.27 0.23 0.24 0.27 0.30 0.31 0.29 0.29 0.32 0.32 0.44 0.62 0.51 0.32 0.14 0.18 0.20 0.23 0.32 0.14 0.10 0.11 0.12 0.12 0.12 0.13 0.15 0.18 0.20 0.21
0.19 0.20 0.23 0.32 0.38 0.40 0.34 0.26 0.27 0.30 0.27 0.26 0.27 0.29 0.30 0.30 0.31 0.29 0.33 0.60 0.76 0.51 0.19 0.37 0.48 0.31 0.41 0.24 0.11 0.10 0.10 0.10 0.11 0.13 0.16 0.21 0.25 0.34
0.19 0.18 0.22 0.33 0.35 0.33 0.31 0.30 0.34 0.33 0.27 0.30 0.33 0.32 0.30 0.28 0.26 0.27 0.28 0.32 0.44 0.51 0.35 0.55 0.81 0.55 0.59 0.43 0.18 0.11 0.09 0.10 0.15 0.21 0.25 0.31 0.35 0.39
0.21 0.23 0.27 0.29 0.28 0.28 0.31 0.34 0.33 0.29 0.28 0.31 0.32 0.30 0.28 0.28 0.30 0.32 0.33 0.31 0.29 0.28 0.29 0.36 0.57 0.60 0.70 0.64 0.36 0.17 0.15 0.13 0.15 0.26 0.31 0.34 0.36 0.40
0.26 0.25 0.25 0.24 0.25 0.26 0.28 0.30 0.31 0.31 0.33 0.34 0.32 0.30 0.30 0.33 0.35 0.36 0.38 0.37 0.38 0.31 0.26 0.25 0.31 0.53 0.63 0.45 0.45 0.35 0.27 0.31 0.25 0.32 0.37 0.36 0.40 0.48
0.33 0.29 0.27 0.26 0.25 0.24 0.25 0.26 0.28 0.31 0.34 0.34 0.37 0.38 0.37 0.36 0.35 0.34 0.38 0.42 0.44 0.34 0.28 0.25 0.26 0.30 0.38 0.41 0.43 0.31 0.28 0.35 0.44 0.52 0.56 0.55 0.49 0.55
0.41 0.33 0.27 0.24 0.24 0.24 0.24 0.27 0.29 0.31 0.34 0.39 0.41 0.43 0.45 0.44 0.40 0.35 0.36 0.42 0.43 0.36 0.32 0.30 0.31 0.36 0.32 0.26 0.30 0.40 0.41 0.48 0.55 0.60 0.70 0.80 0.66 0.55
0.40 0.30 0.24 0.22 0.22 0.24 0.27 0.30 0.31 0.32 0.37 0.43 0.47 0.50 0.53 0.50 0.46 0.43 0.40 0.41 0.39 0.35 0.34 0.35 0.43 0.63 0.63 0.36 0.20 0.36 0.61 0.67 0.63 0.65 0.72 0.87 1.00 0.81
0.30 0.25 0.22 0.22 0.25 0.28 0.32 0.34 0.36 0.37 0.40 0.42 0.45 0.49 0.55 0.57 0.52 0.46 0.44 0.45 0.46 0.41 0.35 0.32 0.38 0.64 0.94 0.78 0.53 0.41 0.49 0.71 0.90 0.95 0.78 0.64 0.68 0.65
0.22 0.21 0.24 0.28 0.32 0.35 0.37 0.39 0.42 0.44 0.43 0.46 0.47 0.49 0.54 0.61 0.54 0.45 0.46 0.44 0.48 0.47 0.42 0.32 0.32 0.45 0.66 0.78 0.63 0.41 0.43 0.49 0.73 1.07 1.02 0.81 0.60 0.50
0.23 0.25 0.29 0.34 0.41 0.45 0.46 0.46 0.46 0.44 0.44 0.47 0.47 0.49 0.52 0.59 0.57 0.50 0.48 0.49 0.46 0.44 0.42 0.34 0.33 0.39 0.51 0.65 0.53 0.34 0.33 0.30 0.29 0.35 0.66 1.10 1.51 1.59
0.28 0.31 0.34 0.39 0.45 0.49 0.50 0.49 0.47 0.43 0.44 0.50 0.52 0.52 0.53 0.55 0.51 0.53 0.52 0.53 0.54 0.48 0.43 0.38 0.32 0.33 0.35 0.40 0.44 0.36 0.29 0.25 0.22 0.24 0.41 0.59 0.86 1.12

GEFSNE_prec_meanprecacc_126.txt.gz
Total_Precipitation_Accumulation
1.00 0.98 0.94 0.86 0.85 0.85 0.87 0.94 1.03 0.92 0.67 0.48 0.45 0.47 0.51 0.54 0.60 0.57 0.51 0.61 0.62 0.59 0.61 0.62 0.59 0.56 0.53 0.54 0.58 0.67 0.71 0.71 0.72 0.75 0.77 0.77 0.79 0.87
0.93 0.95 0.92 0.86 0.84 0.86 0.89 0.93 1.02 1.08 0.91 0.59 0.48 0.49 0.53 0.54 0.60 0.53 0.48 0.56 0.54 0.53 0.52 0.51 0.49 0.46 0.44 0.44 0.45 0.51 0.56 0.60 0.64 0.70 0.78 0.84 0.87 0.93
0.85 0.86 0.87 0.86 0.87 0.88 0.89 0.93 0.98 1.04 1.04 0.78 0.62 0.62 0.65 0.62 0.60 0.52 0.46 0.43 0.41 0.47 0.44 0.41 0.39 0.37 0.36 0.35 0.36 0.39 0.42 0.47 0.54 0.62 0.71 0.80 0.85 0.86
0.74 0.77 0.78 0.80 0.82 0.84 0.89 0.94 0.95 0.97 1.00 0.88 0.69 0.60 0.59 0.56 0.53 0.48 0.41 0.35 0.31 0.39 0.38 0.35 0.33 0.30 0.29 0.28 0.31 0.35 0.37 0.39 0.44 0.49 0.54 0.63 0.70 0.74
0.66 0.69 0.71 0.77 0.82 0.81 0.83 0.85 0.85 0.85 0.87 0.85 0.70 0.56 0.50 0.46 0.45 0.40 0.34 0.30 0.26 0.29 0.30 0.28 0.27 0.27 0.27 0.27 0.29 0.30 0.29 0.28 0.30 0.33 0.38 0.45 0.50 0.57
0.65 0.67 0.68 0.71 0.73 0.76 0.79 0.80 0.79 0.78 0.78 0.80 0.74 0.64 0.56 0.50 0.50 0.46 0.39 0.32 0.28 0.24 0.27 0.26 0.25 0.24 0.21 0.19 0.18 0.19 0.21 0.22 0.26 0.31 0.36 0.40 0.44 0.49
0.66 0.67 0.69 0.74 0.75 0.74 0.73 0.72 0.72 0.75 0.78 0.83 0.79 0.66 0.53 0.48 0.46 0.41 0.39 0.37 0.35 0.30 0.29 0.26 0.22 0.19 0.17 0.16 0.16 0.17 0.20 0.24 0.28 0.32 0.37 0.42 0.46 0.50
0.65 0.63 0.62 0.65 0.64 0.64 0.63 0.62 0.66 0.73 0.82 0.85 0.74 0.57 0.42 0.36 0.36 0.41 0.45 0.49 0.42 0.26 0.25 0.23 0.21 0.19 0.15 0.14 0.18 0.21 0.22 0.23 0.25 0.27 0.30 0.34 0.39 0.44
0.62 0.57 0.53 0.51 0.52 0.45 0.47 0.51 0.53 0.60 0.62 0.56 0.48 0.41 0.36 0.34 0.42 0.51 0.49 0.46 0.34 0.23 0.27 0.30 0.24 0.21 0.17 0.16 0.20 0.20 0.20 0.22 0.23 0.26 0.28 0.30 0.34 0.38
0.48 0.43 0.40 0.36 0.34 0.35 0.37 0.45 0.44 0.42 0.40 0.37 0.34 0.32 0.31 0.33 0.41 0.50 0.51 0.49 0.38 0.29 0.27 0.30 0.22 0.18 0.16 0.16 0.21 0.22 0.22 0.24 0.28 0.32 0.33 0.33 0.34 0.36
0.36 0.33 0.33 0.31 0.35 0.41 0.41 0.43 0.34 0.29 0.32 0.36 0.38 0.37 0.37 0.36 0.37 0.48 0.57 0.61 0.51 0.32 0.24 0.24 0.20 0.18 0.18 0.18 0.19 0.23 0.23 0.23 0.24 0.26 0.27 0.29 0.32 0.35
0.27 0.27 0.31 0.31 0.38 0.44 0.41 0.36 0.30 0.26 0.28 0.31 0.35 0.36 0.35 0.36 0.40 0.41 0.54 0.74 0.62 0.41 0.20 0.23 0.25 0.29 0.40 0.22 0.18 0.19 0.21 0.22 0.22 0.24 0.26 0.28 0.32 0.35
0.22 0.23 0.25 0.35 0.41 0.43 0.37 0.30 0.30 0.33 0.30 0.29 0.30 0.32 0.33 0.35 0.37 0.35 0.40 0.70 0.87 0.59 0.25 0.44 0.56 0.39 0.50 0.33 0.19 0.18 0.18 0.19 0.21 0.24 0.28 0.32 0.37 0.48
0.20 0.20 0.23 0.35 0.37 0.35 0.33 0.32 0.35 0.34 0.28 0.31 0.34 0.33 0.31 0.30 0.29 0.31 0.32 0.37 0.50 0.57 0.39 0.61 0.89 0.63 0.69 0.53 0.27 0.19 0.18 0.19 0.25 0.33 0.37 0.44 0.48 0.53
0.22 0.24 0.28 0.30 0.29 0.29 0.32 0.35 0.34 0.30 0.29 0.32 0.32 0.31 0.29 0.29 0.31 0.35 0.37 0.36 0.35 0.33 0.34 0.41 0.63 0.68 0.80 0.74 0.46 0.26 0.24 0.22 0.25 0.37 0.44 0.46 0.48 0.52
0.26 0.26 0.25 0.25 0.26 0.27 0.29 0.31 0.32 0.32 0.34 0.36 0.33 0.30 0.31 0.34 0.36 0.38 0.42 0.42 0.44 0.38 0.33 0.32 0.39 0.61 0.74 0.55 0.55 0.45 0.36 0.41 0.36 0.43 0.48 0.49 0.54 0.60
0.34 0.29 0.27 0.26 0.25 0.24 0.25 0.27 0.29 0.32 0.36 0.36 0.38 0.39 0.38 0.37 0.36 0.36 0.41 0.47 0.50 0.41 0.34 0.33 0.35 0.40 0.48 0.51 0.53 0.42 0.38 0.45 0.54 0.63 0.68 0.67 0.61 0.66
0.42 0.33 0.27 0.25 0.25 0.24 0.25 0.28 0.30 0.33 0.37 0.42 0.44 0.46 0.48 0.46 0.42 0.37 0.38 0.46 0.48 0.41 0.37 0.35 0.39 0.46 0.43 0.37 0.42 0.50 0.51 0.58 0.65 0.70 0.81 0.91 0.76 0.64
0.40 0.30 0.24 0.22 0.23 0.25 0.29 0.32 0.33 0.34 0.40 0.48 0.53 0.55 0.57 0.53 0.50 0.46 0.42 0.44 0.43 0.39 0.38 0.40 0.49 0.71 0.73 0.45 0.28 0.45 0.71 0.77 0.73 0.76 0.83 0.97 1.08 0.88
0.30 0.25 0.23 0.23 0.25 0.29 0.33 0.36 0.39 0.41 0.44 0.48 0.51 0.56 0.62 0.63 0.57 0.51 0.49 0.50 0.51 0.46 0.40 0.37 0.44 0.72 1.04 0.87 0.61 0.49 0.57 0.82 1.01 1.06 0.89 0.75 0.79 0.76
0.22 0.22 0.24 0.28 0.33 0.36 0.39 0.41 0.45 0.47 0.47 0.50 0.52 0.55 0.62 0.69 0.61 0.52 0.53 0.51 0.55 0.55 0.49 0.39 0.39 0.52 0.75 0.89 0.73 0.50 0.52 0.59 0.85 1.20 1.15 0.94 0.73 0.62
0.23 0.26 0.30 0.35 0.42 0.46 0.47 0.48 0.49 0.46 0.47 0.51 0.52 0.54 0.58 0.67 0.67 0.59 0.57 0.58 0.55 0.54 0.51 0.42 0.40 0.47 0.60 0.77 0.64 0.45 0.44 0.42 0.41 0.48 0.79 1.22 1.62 1.69
0.29 0.32 0.35 0.40 0.46 0.50 0.52 0.50 0.49 0.45 0.46 0.53 0.56 0.56 0.59 0.61 0.59 0.61 0.61 0.62 0.63 0.58 0.53 0.48 0.42 0.42 0.45 0.51 0.55 0.48 0.41 0.37 0.34 0.36 0.53 0.69 0.95 1.20

GEFSNE_prec_meanprecacc_132.txt.gz
Total_Precipitation_Accumulation
1.07 1.06 1.03 0.96 0.96 0.96 0.97 1.04 1.13 1.00 0.73 0.54 0.51 0.52 0.55 0.59 0.67 0.66 0.60 0.71 0.72 0.67 0.68 0.69 0.66 0.62 0.59 0.59 0.64 0.73 0.77 0.77 0.77 0.80 0.83 0.82 0.84 0.92
0.99 1.02 1.00 0.93 0.92 0.93 0.97 1.01 1.09 1.14 0.96 0.63 0.53 0.53 0.57 0.59 0.66 0.60 0.56 0.66 0.64 0.62 0.61 0.59 0.57 0.54 0.51 0.50 0.51 0.57 0.62 0.65 0.68 0.74 0.82 0.89 0.92 0.98
0.90 0.92 0.92 0.91 0.93 0.93 0.94 0.98 1.03 1.10 1.08 0.80 0.65 0.64 0.68 0.67 0.65 0.59 0.53 0.51 0.50 0.57 0.54 0.50 0.49 0.46 0.45 0.44 0.44 0.45 0.47 0.51 0.58 0.66 0.75 0.84 0.90 0.91
0.78 0.82 0.83 0.85 0.86 0.88 0.93 0.97 0.99 1.01 1.04 0.91 0.71 0.63 0.61 0.59 0.57 0.55 0.50 0.45 0.41 0.49 0.47 0.44 0.42 0.38 0.36 0.36 0.39 0.42 0.43 0.44 0.48 0.53 0.58 0.67 0.75 0.80
0.70 0.72 0.74 0.79 0.84 0.84 0.85 0.88 0.88 0.88 0.90 0.88 0.72 0.58 0.52 0.49 0.49 0.45 0.40 0.38 0.35 0.38 0.40 0.38 0.38 0.37 0.36 0.35 0.37 0.37 0.36 0.34 0.34 0.37 0.42 0.49 0.55 0.62
0.67 0.69 0.70 0.72 0.74 0.77 0.80 0.81 0.81 0.80 0.81 0.83 0.77 0.67 0.59 0.53 0.54 0.50 0.44 0.38 0.35 0.32 0.37 0.36 0.37 0.36 0.32 0.29 0.27 0.28 0.29 0.29 0.31 0.36 0.40 0.44 0.48 0.53
0.68 0.68 0.70 0.75 0.76 0.75 0.74 0.73 0.74 0.78 0.81 0.87 0.83 0.70 0.57 0.51 0.49 0.44 0.43 0.42 0.41 0.38 0.38 0.34 0.30 0.27 0.24 0.24 0.25 0.26 0.28 0.31 0.35 0.38 0.42 0.47 0.50 0.54
0.66 0.64 0.63 0.66 0.65 0.65 0.64 0.64 0.69 0.76 0.86 0.90 0.78 0.62 0.47 0.41 0.41 0.45 0.50 0.54 0.47 0.32 0.32 0.32 0.30 0.28 0.23 0.20 0.26 0.28 0.29 0.30 0.31 0.33 0.36 0.40 0.44 0.48
0.62 0.58 0.53 0.51 0.53 0.46 0.48 0.52 0.55 0.62 0.65 0.59 0.52 0.45 0.41 0.38 0.47 0.55 0.54 0.51 0.40 0.28 0.34 0.38 0.33 0.30 0.24 0.23 0.28 0.27 0.27 0.29 0.31 0.34 0.36 0.38 0.40 0.44
0.48 0.44 0.40 0.36 0.35 0.36 0.38 0.46 0.45 0.43 0.42 0.38 0.36 0.33 0.33 0.36 0.45 0.55 0.56 0.54 0.43 0.34 0.34 0.37 0.29 0.26 0.22 0.22 0.28 0.29 0.28 0.31 0.36 0.40 0.41 0.41 0.42 0.44
0.36 0.33 0.33 0.31 0.36 0.42 0.42 0.44 0.35 0.30 0.33 0.38 0.40 0.38 0.39 0.38 0.40 0.51 0.60 0.66 0.57 0.37 0.29 0.30 0.26 0.25 0.24 0.23 0.25 0.30 0.30 0.31 0.32 0.34 0.36 0.38 0.41 0.44
0.27 0.28 0.32 0.32 0.38 0.45 0.42 0.37 0.31 0.27 0.29 0.33 0.36 0.38 0.37 0.38 0.43 0.43 0.57 0.78 0.67 0.46 0.25 0.28 0.30 0.35 0.48 0.28 0.23 0.25 0.27 0.29 0.31 0.32 0.35 0.38 0.42 0.45
0.23 0.24 0.26 0.36 0.42 0.44 0.38 0.31 0.32 0.35 0.32 0.31 0.33 0.34 0.36 0.38 0.40 0.38 0.43 0.74 0.92 0.64 0.29 0.49 0.63 0.45 0.58 0.40 0.24 0.23 0.24 0.26 0.29 0.32 0.35 0.40 0.46 0.58
0.21 0.21 0.24 0.36 0.38 0.36 0.34 0.33 0.37 0.36 0.29 0.32 0.35 0.34 0.32 0.31 0.31 0.32 0.34 0.39 0.53 0.61 0.42 0.66 0.96 0.70 0.77 0.60 0.31 0.23 0.23 0.25 0.32 0.40 0.45 0.52 0.56 0.61
0.23 0.25 0.28 0.30 0.29 0.30 0.32 0.36 0.35 0.31 0.30 0.32 0.33 0.31 0.29 0.30 0.32 0.35 0.37 0.37 0.36 0.35 0.37 0.45 0.68 0.74 0.87 0.82 0.50 0.29 0.29 0.28 0.32 0.46 0.52 0.55 0.56 0.60
0.26 0.26 0.26 0.25 0.26 0.27 0.29 0.31 0.32 0.33 0.36 0.37 0.33 0.31 0.32 0.34 0.37 0.38 0.42 0.43 0.45 0.39 0.35 0.34 0.42 0.67 0.81 0.61 0.61 0.49 0.40 0.46 0.42 0.51 0.59 0.60 0.64 0.68
0.34 0.29 0.27 0.26 0.25 0.25 0.26 0.27 0.29 0.33 0.37 0.36 0.39 0.40 0.38 0.38 0.36 0.36 0.42 0.47 0.51 0.42 0.36 0.35 0.37 0.44 0.53 0.56 0.59 0.48 0.44 0.51 0.60 0.71 0.79 0.80 0.73 0.78
0.42 0.33 0.27 0.25 0.25 0.25 0.26 0.28 0.31 0.34 0.38 0.43 0.45 0.47 0.49 0.47 0.43 0.37 0.39 0.46 0.49 0.42 0.38 0.37 0.42 0.51 0.49 0.44 0.48 0.56 0.57 0.64 0.71 0.78 0.91 1.03 0.87 0.76
0.40 0.31 0.24 0.22 0.23 0.26 0.29 0.33 0.34 0.35 0.41 0.49 0.54 0.57 0.59 0.55 0.51 0.47 0.43 0.45 0.44 0.40 0.39 0.41 0.52 0.76 0.79 0.50 0.34 0.50 0.77 0.84 0.80 0.84 0.92 1.07 1.18 0.98
0.30 0.25 0.23 0.23 0.26 0.30 0.34 0.37 0.40 0.42 0.45 0.49 0.53 0.57 0.64 0.65 0.59 0.53 0.50 0.51 0.53 0.47 0.41 0.38 0.46 0.76 1.09 0.93 0.66 0.53 0.62 0.89 1.09 1.15 0.98 0.85 0.89 0.88
0.22 0.22 0.25 0.29 0.34 0.37 0.40 0.42 0.46 0.48 0.48 0.52 0.54 0.57 0.64 0.72 0.64 0.55 0.54 0.52 0.57 0.56 0.50 0.40 0.40 0.55 0.80 0.94 0.79 0.55 0.56 0.65 0.93 1.29 1.25 1.05 0.85 0.76
0.23 0.26 0.30 0.35 0.42 0.47 0.48 0.49 0.49 0.47 0.48 0.52 0.54 0.56 0.61 0.70 0.70 0.63 0.60 0.61 0.56 0.56 0.53 0.44 0.42 0.50 0.65 0.83 0.70 0.51 0.50 0.49 0.49 0.58 0.90 1.34 1.75 1.81
0.29 0.32 0.36 0.41 0.47 0.51 0.52 0.51 0.50 0.46 0.47 0.54 0.58 0.58 0.62 0.65 0.63 0.66 0.66 0.67 0.66 0.60 0.55 0.51 0.45 0.46 0.50 0.56 0.61 0.54 0.47 0.44 0.41 0.45 0.63 0.80 1.06 1.30

GEFSNE_prec_meanprecacc_138.txt.gz
Total_Precipitation_Accumulation
1.11 1.11 1.07 1.00 0.99 0.99 1.01 1.09 1.19 1.06 0.80 0.61 0.57 0.57 0.61 0.64 0.72 0.70 0.64 0.77 0.78 0.74 0.76 0.77 0.75 0.72 0.68 0.69 0.74 0.84 0.91 0.93 0.93 0.94 0.92 0.90 0.90 0.97
1.03 1.05 1.03 0.96 0.95 0.97 1.01 1.05 1.14 1.21 1.02 0.69 0.57 0.57 0.61 0.62 0.70 0.63 0.58 0.69 0.68 0.66 0.66 0.64 0.63 0.61 0.59 0.58 0.59 0.66 0.72 0.77 0.81 0.86 0.94 0.99 1.00 1.05
0.93 0.94 0.95 0.95 0.97 0.97 0.99 1.03 1.08 1.15 1.14 0.86 0.70 0.68 0.71 0.70 0.69 0.62 0.56 0.54 0.53 0.60 0.57 0.54 0.53 0.52 0.51 0.51 0.51 0.52 0.54 0.60 0.68 0.76 0.85 0.93 0.97 0.98
0.80 0.85 0.85 0.88 0.90 0.93 0.98 1.02 1.05 1.07 1.11 0.97 0.76 0.67 0.65 0.63 0.60 0.57 0.52 0.47 0.43 0.52 0.50 0.47 0.45 0.42 0.41 0.42 0.45 0.48 0.49 0.51 0.55 0.61 0.66 0.74 0.81 0.86
0.71 0.73 0.76 0.82 0.87 0.87 0.90 0.92 0.92 0.92 0.94 0.92 0.76 0.61 0.55 0.52 0.52 0.47 0.43 0.40 0.37 0.40 0.42 0.41 0.41 0.41 0.41 0.41 0.43 0.44 0.42 0.40 0.41 0.44 0.49 0.56 0.61 0.67
0.68 0.70 0.72 0.74 0.76 0.79 0.83 0.84 0.84 0.84 0.83 0.85 0.79 0.68 0.60 0.55 0.56 0.52 0.46 0.41 0.38 0.35 0.40 0.40 0.41 0.40 0.37 0.35 0.34 0.36 0.37 0.37 0.40 0.44 0.49 0.53 0.55 0.59
0.68 0.69 0.72 0.78 0.79 0.77 0.76 0.75 0.76 0.80 0.84 0.89 0.85 0.71 0.58 0.53 0.51 0.46 0.46 0.44 0.44 0.41 0.41 0.37 0.33 0.30 0.28 0.28 0.30 0.32 0.36 0.40 0.43 0.46 0.51 0.55 0.57 0.60
0.67 0.64 0.64 0.67 0.66 0.66 0.65 0.65 0.70 0.78 0.89 0.92 0.80 0.63 0.48 0.42 0.42 0.47 0.52 0.56 0.50 0.34 0.35 0.35 0.32 0.32 0.27 0.25 0.31 0.34 0.35 0.37 0.39 0.41 0.43 0.48 0.52 0.56
0.63 0.58 0.54 0.52 0.53 0.46 0.49 0.53 0.56 0.63 0.66 0.60 0.53 0.46 0.41 0.39 0.48 0.57 0.56 0.54 0.42 0.30 0.37 0.41 0.36 0.33 0.28 0.29 0.35 0.33 0.33 0.35 0.38 0.42 0.44 0.45 0.48 0.52
0.48 0.44 0.40 0.36 0.35 0.36 0.39 0.46 0.45 0.43 0.42 0.39 0.36 0.34 0.34 0.37 0.46 0.57 0.58 0.57 0.46 0.35 0.36 0.39 0.32 0.28 0.25 0.26 0.33 0.34 0.34 0.38 0.42 0.47 0.48 0.49 0.49 0.52
0.37 0.33 0.33 0.31 0.36 0.42 0.43 0.44 0.35 0.30 0.34 0.38 0.40 0.39 0.39 0.39 0.40 0.52 0.62 0.68 0.59 0.39 0.31 0.33 0.28 0.27 0.27 0.26 0.29 0.35 0.35 0.37 0.39 0.40 0.43 0.45 0.48 0.53
0.27 0.28 0.32 0.32 0.39 0.46 0.42 0.38 0.32 0.28 0.29 0.33 0.37 0.38 0.37 0.39 0.44 0.44 0.58 0.80 0.69 0.48 0.26 0.31 0.33 0.38 0.51 0.31 0.26 0.29 0.32 0.34 0.37 0.39 0.42 0.46 0.50 0.54
0.23 0.24 0.26 0.36 0.42 0.45 0.39 0.31 0.33 0.36 0.33 0.32 0.33 0.35 0.37 0.39 0.41 0.39 0.45 0.77 0.95 0.67 0.30 0.52 0.66 0.49 0.63 0.44 0.28 0.26 0.28 0.30 0.34 0.38 0.42 0.47 0.55 0.67
0.22 0.21 0.25 0.37 0.39 0.37 0.34 0.34 0.38 0.36 0.30 0.33 0.36 0.34 0.33 0.32 0.31 0.33 0.35 0.41 0.55 0.63 0.45 0.68 1.00 0.73 0.81 0.65 0.36 0.28 0.28 0.29 0.37 0.46 0.51 0.59 0.63 0.68
0.23 0.25 0.29 0.31 0.30 0.30 0.33 0.37 0.36 0.32 0.31 0.34 0.34 0.32 0.30 0.30 0.32 0.36 0.38 0.38 0.37 0.36 0.38 0.46 0.71 0.77 0.91 0.87 0.55 0.34 0.34 0.33 0.37 0.51 0.59 0.62 0.63 0.67
0.26 0.26 0.26 0.25 0.26 0.27 0.29 0.32 0.33 0.33 0.37 0.38 0.35 0.32 0.32 0.35 0.37 0.39 0.42 0.43 0.46 0.40 0.36 0.35 0.43 0.69 0.84 0.65 0.65 0.55 0.45 0.52 0.47 0.57 0.66 0.68 0.70 0.74
0.34 0.30 0.27 0.26 0.25 0.25 0.26 0.28 0.30 0.33 0.37 0.37 0.40 0.41 0.39 0.39 0.37 0.37 0.43 0.48 0.52 0.42 0.36 0.35 0.38 0.44 0.54 0.59 0.63 0.52 0.49 0.55 0.65 0.76 0.86 0.89 0.81 0.85
0.42 0.33 0.27 0.25 0.26 0.25 0.26 0.29 0.31 0.35 0.38 0.44 0.46 0.48 0.50 0.49 0.44 0.38 0.40 0.48 0.50 0.42 0.39 0.37 0.42 0.52 0.50 0.46 0.50 0.59 0.62 0.69 0.75 0.82 0.96 1.11 0.96 0.83
0.40 0.31 0.25 0.23 0.23 0.26 0.30 0.33 0.35 0.36 0.42 0.50 0.55 0.58 0.60 0.56 0.52 0.48 0.44 0.46 0.45 0.41 0.39 0.42 0.53 0.78 0.82 0.52 0.35 0.52 0.81 0.89 0.85 0.89 0.97 1.14 1.26 1.06
0.30 0.26 0.23 0.24 0.26 0.31 0.35 0.38 0.40 0.42 0.46 0.50 0.54 0.59 0.65 0.67 0.60 0.54 0.51 0.53 0.54 0.49 0.42 0.39 0.47 0.78 1.13 0.96 0.69 0.54 0.65 0.94 1.15 1.22 1.05 0.91 0.96 0.96
0.22 0.22 0.25 0.29 0.34 0.37 0.40 0.43 0.47 0.49 0.49 0.53 0.55 0.58 0.66 0.73 0.66 0.56 0.56 0.54 0.58 0.58 0.52 0.41 0.41 0.56 0.82 0.97 0.82 0.56 0.59 0.69 0.98 1.37 1.33 1.13 0.94 0.86
0.24 0.26 0.30 0.36 0.43 0.47 0.49 0.49 0.50 0.48 0.49 0.53 0.54 0.57 0.62 0.71 0.72 0.64 0.62 0.63 0.58 0.57 0.54 0.45 0.43 0.51 0.67 0.86 0.73 0.53 0.53 0.52 0.55 0.65 0.98 1.42 1.84 1.91
0.29 0.33 0.36 0.41 0.47 0.51 0.53 0.52 0.50 0.47 0.47 0.55 0.59 0.59 0.63 0.67 0.65 0.68 0.68 0.69 0.69 0.62 0.56 0.52 0.46 0.47 0.51 0.58 0.64 0.56 0.50 0.47 0.45 0.50 0.71 0.88 1.13 1.37

GEFSNE_prec_meanprecacc_144.txt.gz
Total_Precipitation_Accumulation
1.13 1.12 1.09 1.02 1.02 1.03 1.06 1.15 1.25 1.12 0.84 0.65 0.60 0.60 0.64 0.68 0.77 0.74 0.68 0.81 0.82 0.78 0.80 0.81 0.79 0.76 0.73 0.74 0.81 0.95 1.04 1.08 1.10 1.14 1.14 1.08 1.04 1.09
1.04 1.06 1.04 0.97 0.96 0.99 1.03 1.07 1.17 1.24 1.05 0.71 0.60 0.60 0.63 0.65 0.73 0.66 0.62 0.73 0.71 0.69 0.68 0.67 0.66 0.64 0.62 0.62 0.64 0.72 0.80 0.86 0.92 1.01 1.12 1.19 1.18 1.19
0.94 0.96 0.96 0.96 0.98 0.99 1.01 1.05 1.10 1.18 1.17 0.88 0.71 0.70 0.73 0.72 0.71 0.64 0.58 0.57 0.56 0.64 0.60 0.57 0.56 0.55 0.54 0.54 0.55 0.58 0.61 0.66 0.75 0.85 0.96 1.08 1.14 1.12
0.80 0.85 0.86 0.89 0.92 0.95 1.00 1.04 1.07 1.09 1.13 1.00 0.79 0.70 0.68 0.65 0.63 0.60 0.55 0.50 0.46 0.54 0.52 0.49 0.47 0.45 0.43 0.44 0.47 0.52 0.54 0.56 0.61 0.67 0.73 0.84 0.93 0.99
0.71 0.74 0.77 0.82 0.88 0.88 0.91 0.93 0.94 0.94 0.98 0.96 0.79 0.64 0.58 0.54 0.54 0.50 0.46 0.42 0.38 0.42 0.43 0.42 0.42 0.42 0.43 0.43 0.45 0.46 0.46 0.45 0.46 0.50 0.56 0.65 0.72 0.79
0.69 0.71 0.73 0.75 0.77 0.80 0.84 0.85 0.85 0.85 0.86 0.87 0.81 0.70 0.63 0.57 0.58 0.54 0.48 0.43 0.40 0.36 0.41 0.41 0.42 0.42 0.38 0.36 0.36 0.38 0.39 0.41 0.45 0.50 0.55 0.59 0.64 0.71
0.69 0.70 0.72 0.78 0.80 0.78 0.76 0.76 0.77 0.81 0.85 0.90 0.87 0.73 0.60 0.55 0.53 0.48 0.48 0.46 0.45 0.42 0.41 0.38 0.35 0.31 0.29 0.30 0.32 0.34 0.38 0.43 0.47 0.51 0.56 0.61 0.64 0.69
0.67 0.64 0.64 0.68 0.66 0.67 0.66 0.65 0.70 0.78 0.89 0.93 0.82 0.65 0.50 0.44 0.43 0.48 0.53 0.57 0.51 0.35 0.36 0.35 0.33 0.33 0.29 0.27 0.33 0.36 0.37 0.39 0.42 0.45 0.48 0.53 0.58 0.62
0.63 0.58 0.54 0.52 0.53 0.46 0.49 0.53 0.56 0.64 0.66 0.60 0.54 0.46 0.42 0.40 0.49 0.58 0.57 0.55 0.43 0.31 0.37 0.42 0.37 0.35 0.30 0.30 0.36 0.34 0.35 0.37 0.40 0.45 0.47 0.50 0.53 0.57
0.49 0.44 0.40 0.37 0.35 0.36 0.39 0.47 0.45 0.43 0.42 0.39 0.37 0.34 0.34 0.37 0.46 0.58 0.59 0.58 0.46 0.36 0.36 0.40 0.32 0.29 0.26 0.27 0.34 0.35 0.35 0.39 0.44 0.50 0.53 0.54 0.55 0.59
0.37 0.34 0.34 0.31 0.36 0.43 0.43 0.45 0.35 0.31 0.34 0.38 0.41 0.39 0.40 0.40 0.41 0.52 0.62 0.69 0.60 0.40 0.32 0.33 0.29 0.27 0.28 0.27 0.30 0.36 0.36 0.38 0.40 0.43 0.46 0.50 0.54 0.59
0.28 0.29 0.33 0.33 0.39 0.46 0.43 0.38 0.32 0.28 0.29 0.33 0.37 0.39 0.37 0.39 0.44 0.44 0.59 0.82 0.71 0.49 0.27 0.31 0.33 0.39 0.52 0.32 0.26 0.29 0.32 0.35 0.38 0.41 0.45 0.50 0.55 0.59
0.24 0.25 0.27 0.37 0.43 0.46 0.40 0.32 0.33 0.36 0.33 0.32 0.33 0.35 0.37 0.39 0.41 0.39 0.45 0.78 0.97 0.69 0.31 0.53 0.68 0.51 0.65 0.46 0.29 0.27 0.29 0.32 0.36 0.40 0.45 0.50 0.59 0.72
0.22 0.22 0.25 0.37 0.39 0.37 0.35 0.34 0.38 0.37 0.30 0.33 0.36 0.34 0.33 0.32 0.32 0.33 0.36 0.41 0.56 0.64 0.46 0.70 1.02 0.76 0.84 0.68 0.38 0.30 0.30 0.32 0.39 0.49 0.54 0.62 0.67 0.73
0.23 0.25 0.29 0.31 0.30 0.30 0.33 0.37 0.36 0.32 0.31 0.34 0.34 0.32 0.30 0.31 0.33 0.36 0.38 0.38 0.37 0.36 0.38 0.47 0.72 0.79 0.94 0.90 0.57 0.36 0.37 0.36 0.40 0.54 0.62 0.66 0.67 0.71
0.26 0.26 0.26 0.25 0.26 0.27 0.30 0.32 0.33 0.34 0.37 0.38 0.35 0.32 0.33 0.35 0.38 0.40 0.43 0.44 0.47 0.40 0.36 0.35 0.44 0.70 0.86 0.67 0.67 0.57 0.47 0.54 0.49 0.59 0.68 0.71 0.75 0.78
0.34 0.30 0.27 0.26 0.25 0.25 0.26 0.28 0.30 0.33 0.37 0.38 0.40 0.41 0.39 0.39 0.38 0.38 0.44 0.49 0.53 0.43 0.37 0.35 0.38 0.45 0.55 0.60 0.65 0.54 0.50 0.57 0.66 0.78 0.89 0.93 0.86 0.90
0.42 0.33 0.27 0.25 0.26 0.25 0.26 0.29 0.31 0.35 0.39 0.44 0.47 0.49 0.51 0.49 0.45 0.39 0.40 0.49 0.51 0.43 0.40 0.38 0.43 0.53 0.51 0.47 0.51 0.61 0.64 0.72 0.77 0.83 0.99 1.15 1.01 0.88
0.40 0.31 0.25 0.23 0.23 0.26 0.30 0.33 0.35 0.36 0.42 0.50 0.55 0.59 0.61 0.57 0.53 0.49 0.45 0.47 0.47 0.42 0.40 0.42 0.54 0.81 0.85 0.54 0.36 0.54 0.85 0.93 0.88 0.91 0.99 1.17 1.31 1.11
0.31 0.26 0.23 0.24 0.26 0.31 0.35 0.38 0.40 0.42 0.46 0.50 0.54 0.59 0.66 0.68 0.61 0.55 0.52 0.54 0.56 0.50 0.43 0.39 0.49 0.81 1.18 1.00 0.72 0.57 0.69 0.98 1.20 1.25 1.07 0.94 0.99 1.00
0.22 0.22 0.25 0.29 0.34 0.38 0.40 0.43 0.47 0.49 0.49 0.53 0.55 0.59 0.66 0.75 0.67 0.57 0.57 0.55 0.59 0.59 0.53 0.42 0.42 0.58 0.85 1.01 0.86 0.59 0.62 0.73 1.02 1.40 1.37 1.17 0.97 0.90
0.24 0.27 0.30 0.36 0.43 0.47 0.49 0.50 0.50 0.48 0.49 0.54 0.55 0.58 0.62 0.72 0.73 0.65 0.63 0.64 0.60 0.59 0.56 0.45 0.43 0.52 0.69 0.90 0.78 0.56 0.56 0.56 0.57 0.67 1.00 1.46 1.90 1.98
0.30 0.33 0.36 0.41 0.47 0.52 0.53 0.52 0.51 0.47 0.48 0.56 0.59 0.60 0.63 0.68 0.66 0.70 0.70 0.71 0.71 0.63 0.58 0.53 0.47 0.48 0.53 0.61 0.67 0.60 0.54 0.51 0.48 0.53 0.73 0.91 1.16 1.41

GEFSNE_prec_meanprecacc_150.txt.gz
Total_Precipitation_Accumulation
1.13 1.13 1.10 1.02 1.03 1.04 1.07 1.16 1.27 1.13 0.85 0.66 0.63 0.63 0.67 0.70 0.79 0.76 0.71 0.84 0.85 0.81 0.83 0.83 0.81 0.79 0.76 0.78 0.86 1.01 1.11 1.15 1.19 1.26 1.31 1.26 1.20 1.22
1.04 1.07 1.05 0.98 0.97 1.00 1.04 1.09 1.19 1.26 1.07 0.72 0.61 0.61 0.65 0.67 0.75 0.69 0.64 0.76 0.74 0.73 0.71 0.70 0.69 0.66 0.65 0.65 0.67 0.76 0.84 0.92 0.98 1.08 1.24 1.36 1.39 1.40
0.94 0.96 0.96 0.96 0.99 1.00 1.02 1.06 1.12 1.20 1.19 0.89 0.72 0.70 0.74 0.73 0.72 0.66 0.60 0.58 0.57 0.66 0.63 0.60 0.58 0.58 0.57 0.57 0.58 0.60 0.64 0.70 0.80 0.90 1.02 1.16 1.25 1.26
0.81 0.86 0.87 0.89 0.93 0.96 1.01 1.05 1.08 1.11 1.15 1.01 0.80 0.71 0.69 0.66 0.64 0.61 0.55 0.51 0.47 0.56 0.54 0.51 0.50 0.47 0.45 0.46 0.50 0.54 0.56 0.59 0.65 0.71 0.77 0.88 0.99 1.07
0.71 0.74 0.77 0.83 0.89 0.89 0.92 0.95 0.95 0.97 1.00 0.98 0.82 0.67 0.60 0.56 0.55 0.51 0.47 0.44 0.40 0.43 0.45 0.44 0.44 0.44 0.44 0.44 0.46 0.48 0.48 0.47 0.48 0.53 0.59 0.69 0.78 0.85
0.69 0.71 0.73 0.75 0.78 0.80 0.84 0.86 0.85 0.86 0.87 0.89 0.83 0.73 0.65 0.60 0.60 0.56 0.50 0.44 0.41 0.37 0.42 0.42 0.43 0.43 0.40 0.38 0.37 0.39 0.41 0.42 0.47 0.52 0.58 0.63 0.69 0.76
0.69 0.70 0.72 0.79 0.80 0.78 0.77 0.76 0.77 0.82 0.85 0.91 0.87 0.74 0.61 0.56 0.55 0.50 0.50 0.49 0.48 0.44 0.43 0.39 0.35 0.32 0.30 0.31 0.34 0.36 0.40 0.45 0.49 0.54 0.59 0.64 0.67 0.73
0.67 0.65 0.64 0.68 0.67 0.67 0.66 0.66 0.71 0.79 0.90 0.93 0.83 0.66 0.51 0.44 0.44 0.49 0.54 0.58 0.52 0.36 0.37 0.36 0.34 0.33 0.29 0.27 0.34 0.38 0.39 0.41 0.44 0.47 0.50 0.55 0.61 0.66
0.63 0.58 0.54 0.52 0.54 0.47 0.50 0.54 0.57 0.64 0.67 0.61 0.54 0.46 0.42 0.40 0.49 0.58 0.57 0.56 0.44 0.32 0.38 0.42 0.37 0.35 0.30 0.30 0.36 0.35 0.36 0.38 0.41 0.46 0.49 0.51 0.55 0.60
0.49 0.44 0.40 0.37 0.35 0.36 0.39 0.47 0.45 0.44 0.43 0.39 0.37 0.35 0.35 0.37 0.46 0.58 0.60 0.58 0.47 0.36 0.37 0.41 0.33 0.30 0.26 0.27 0.35 0.35 0.36 0.39 0.45 0.51 0.54 0.55 0.56 0.60
0.37 0.34 0.34 0.31 0.37 0.43 0.43 0.45 0.35 0.31 0.34 0.39 0.41 0.40 0.40 0.40 0.41 0.52 0.63 0.69 0.60 0.40 0.32 0.34 0.29 0.28 0.28 0.27 0.30 0.36 0.36 0.38 0.41 0.43 0.47 0.50 0.55 0.60
0.28 0.29 0.33 0.33 0.40 0.47 0.43 0.38 0.32 0.28 0.29 0.34 0.37 0.39 0.38 0.39 0.44 0.45 0.59 0.82 0.72 0.50 0.27 0.32 0.34 0.40 0.53 0.32 0.26 0.29 0.32 0.36 0.39 0.41 0.45 0.50 0.56 0.60
0.25 0.25 0.28 0.38 0.44 0.47 0.40 0.32 0.34 0.37 0.33 0.32 0.34 0.35 0.37 0.39 0.41 0.39 0.46 0.79 0.98 0.70 0.32 0.54 0.69 0.52 0.67 0.47 0.29 0.27 0.30 0.32 0.36 0.40 0.45 0.51 0.60 0.74
0.23 0.22 0.26 0.38 0.40 0.38 0.35 0.35 0.39 0.37 0.30 0.33 0.36 0.35 0.33 0.32 0.32 0.34 0.36 0.41 0.57 0.65 0.46 0.71 1.04 0.78 0.86 0.69 0.39 0.30 0.30 0.32 0.40 0.49 0.54 0.63 0.68 0.75
0.24 0.26 0.30 0.31 0.30 0.31 0.34 0.38 0.37 0.32 0.31 0.34 0.34 0.32 0.31 0.31 0.33 0.36 0.38 0.38 0.37 0.36 0.38 0.47 0.73 0.80 0.96 0.92 0.59 0.37 0.37 0.36 0.40 0.54 0.63 0.68 0.68 0.73
0.28 0.27 0.27 0.26 0.26 0.28 0.30 0.32 0.33 0.34 0.37 0.38 0.35 0.32 0.33 0.35 0.38 0.40 0.44 0.44 0.47 0.40 0.36 0.35 0.44 0.71 0.87 0.68 0.69 0.58 0.48 0.55 0.50 0.60 0.69 0.73 0.76 0.80
0.35 0.31 0.28 0.27 0.26 0.25 0.26 0.28 0.30 0.33 0.38 0.38 0.41 0.41 0.39 0.39 0.38 0.38 0.44 0.49 0.53 0.43 0.37 0.35 0.38 0.45 0.56 0.61 0.66 0.55 0.51 0.57 0.66 0.78 0.90 0.94 0.87 0.92
0.43 0.34 0.28 0.26 0.26 0.26 0.26 0.29 0.31 0.35 0.39 0.44 0.47 0.49 0.51 0.49 0.45 0.39 0.41 0.49 0.52 0.44 0.40 0.38 0.44 0.54 0.52 0.47 0.52 0.62 0.65 0.72 0.78 0.84 1.00 1.17 1.02 0.90
0.41 0.31 0.25 0.23 0.24 0.26 0.30 0.34 0.35 0.36 0.42 0.50 0.56 0.59 0.61 0.57 0.53 0.49 0.46 0.48 0.47 0.43 0.40 0.42 0.55 0.83 0.87 0.55 0.37 0.55 0.86 0.94 0.89 0.92 1.00 1.19 1.33 1.12
0.31 0.26 0.24 0.24 0.27 0.31 0.35 0.38 0.41 0.43 0.46 0.50 0.54 0.59 0.66 0.68 0.62 0.55 0.52 0.55 0.57 0.50 0.43 0.40 0.49 0.83 1.22 1.04 0.74 0.58 0.70 1.01 1.23 1.28 1.08 0.95 1.00 1.01
0.22 0.22 0.25 0.29 0.34 0.38 0.41 0.43 0.47 0.50 0.50 0.54 0.56 0.59 0.67 0.75 0.67 0.57 0.57 0.55 0.60 0.60 0.54 0.42 0.42 0.58 0.87 1.05 0.89 0.61 0.63 0.75 1.06 1.45 1.40 1.20 1.00 0.91
0.24 0.27 0.31 0.36 0.43 0.48 0.49 0.50 0.51 0.49 0.50 0.54 0.55 0.58 0.63 0.73 0.74 0.66 0.64 0.65 0.61 0.60 0.57 0.46 0.43 0.52 0.70 0.94 0.81 0.59 0.58 0.56 0.58 0.70 1.04 1.51 1.96 2.04
0.30 0.33 0.36 0.42 0.48 0.52 0.54 0.53 0.51 0.48 0.49 0.56 0.60 0.61 0.64 0.68 0.66 0.70 0.70 0.72 0.72 0.64 0.59 0.54 0.47 0.48 0.53 0.62 0.70 0.63 0.56 0.52 0.49 0.55 0.76 0.93 1.19 1.45

GEFSNE_prec_meanprecacc_156.txt.gz
Total_Precipitation_Accumulation
1.15 1.14 1.11 1.04 1.05 1.06 1.08 1.17 1.28 1.14 0.85 0.66 0.63 0.63 0.67 0.70 0.80 0.77 0.71 0.86 0.86 0.82 0.84 0.85 0.83 0.81 0.79 0.81 0.90 1.05 1.16 1.21 1.26 1.33 1.39 1.35 1.29 1.33
1.06 1.08 1.06 0.99 0.98 1.01 1.05 1.10 1.20 1.27 1.08 0.73 0.62 0.61 0.65 0.68 0.76 0.69 0.65 0.77 0.76 0.74 0.73 0.72 0.71 0.69 0.68 0.68 0.70 0.78 0.88 0.96 1.04 1.14 1.31 1.45 1.49 1.51
0.94 0.97 0.98 0.97 1.00 1.01 1.03 1.07 1.13 1.22 1.21 0.90 0.73 0.71 0.74 0.73 0.73 0.66 0.60 0.59 0.58 0.68 0.64 0.62 0.60 0.60 0.60 0.60 0.61 0.63 0.66 0.73 0.83 0.95 1.08 1.24 1.34 1.37
0.81 0.86 0.87 0.90 0.93 0.96 1.02 1.06 1.09 1.13 1.17 1.03 0.81 0.72 0.70 0.67 0.64 0.61 0.56 0.51 0.47 0.57 0.56 0.53 0.52 0.50 0.49 0.49 0.52 0.57 0.59 0.61 0.67 0.74 0.81 0.94 1.06 1.16
0.71 0.74 0.77 0.83 0.89 0.89 0.92 0.95 0.96 0.98 1.02 1.00 0.83 0.67 0.61 0.56 0.56 0.52 0.47 0.44 0.41 0.44 0.46 0.45 0.45 0.46 0.47 0.47 0.49 0.50 0.50 0.48 0.50 0.54 0.61 0.72 0.81 0.90
0.69 0.71 0.73 0.75 0.78 0.80 0.84 0.86 0.86 0.86 0.87 0.90 0.85 0.74 0.66 0.60 0.61 0.57 0.50 0.45 0.42 0.38 0.43 0.43 0.45 0.45 0.42 0.40 0.39 0.41 0.43 0.44 0.49 0.54 0.60 0.65 0.72 0.79
0.69 0.70 0.72 0.79 0.80 0.78 0.77 0.77 0.78 0.82 0.86 0.91 0.88 0.74 0.61 0.56 0.55 0.50 0.50 0.49 0.49 0.45 0.44 0.40 0.37 0.33 0.31 0.33 0.36 0.39 0.43 0.47 0.52 0.56 0.61 0.66 0.70 0.76
0.67 0.65 0.64 0.68 0.67 0.68 0.67 0.66 0.71 0.79 0.90 0.94 0.83 0.66 0.51 0.45 0.44 0.49 0.54 0.59 0.52 0.37 0.38 0.37 0.35 0.35 0.30 0.28 0.36 0.39 0.41 0.43 0.46 0.49 0.52 0.58 0.63 0.69
0.63 0.58 0.54 0.52 0.54 0.47 0.50 0.54 0.57 0.64 0.67 0.61 0.54 0.47 0.43 0.41 0.49 0.59 0.58 0.57 0.45 0.32 0.39 0.43 0.38 0.36 0.31 0.31 0.37 0.36 0.37 0.39 0.43 0.48 0.50 0.53 0.57 0.61
0.49 0.44 0.40 0.37 0.35 0.37 0.39 0.47 0.45 0.44 0.43 0.39 0.37 0.35 0.35 0.38 0.47 0.58 0.60 0.59 0.47 0.37 0.37 0.41 0.33 0.30 0.27 0.28 0.35 0.36 0.36 0.40 0.45 0.51 0.54 0.56 0.57 0.61
0.37 0.34 0.34 0.31 0.37 0.43 0.43 0.45 0.35 0.31 0.35 0.39 0.41 0.40 0.40 0.40 0.41 0.53 0.63 0.70 0.61 0.40 0.32 0.34 0.30 0.28 0.28 0.27 0.30 0.36 0.36 0.38 0.41 0.43 0.47 0.51 0.55 0.60
0.29 0.29 0.34 0.34 0.40 0.47 0.43 0.38 0.32 0.28 0.30 0.34 0.37 0.39 0.38 0.40 0.44 0.45 0.60 0.83 0.72 0.50 0.27 0.33 0.35 0.41 0.54 0.33 0.27 0.30 0.33 0.36 0.39 0.41 0.45 0.50 0.56 0.60
0.25 0.26 0.29 0.39 0.45 0.48 0.41 0.33 0.34 0.37 0.34 0.32 0.34 0.36 0.38 0.40 0.42 0.40 0.46 0.79 0.99 0.71 0.32 0.55 0.70 0.53 0.68 0.47 0.29 0.28 0.30 0.32 0.36 0.40 0.45 0.51 0.60 0.74
0.23 0.23 0.27 0.38 0.41 0.39 0.36 0.35 0.39 0.38 0.30 0.33 0.36 0.35 0.34 0.33 0.32 0.34 0.36 0.42 0.57 0.66 0.47 0.72 1.06 0.79 0.88 0.70 0.39 0.30 0.30 0.32 0.40 0.49 0.54 0.63 0.68 0.75
0.25 0.27 0.30 0.32 0.31 0.31 0.34 0.38 0.37 0.33 0.32 0.34 0.35 0.33 0.31 0.31 0.33 0.37 0.39 0.38 0.38 0.36 0.38 0.47 0.73 0.80 0.97 0.94 0.60 0.37 0.37 0.36 0.40 0.54 0.63 0.68 0.68 0.73
0.29 0.28 0.28 0.26 0.27 0.28 0.30 0.32 0.33 0.34 0.37 0.39 0.35 0.32 0.33 0.35 0.38 0.40 0.44 0.44 0.47 0.40 0.36 0.35 0.44 0.71 0.88 0.69 0.70 0.58 0.48 0.55 0.50 0.60 0.70 0.73 0.77 0.81
0.37 0.32 0.29 0.27 0.27 0.26 0.27 0.28 0.30 0.34 0.38 0.38 0.41 0.41 0.40 0.39 0.38 0.38 0.44 0.50 0.53 0.44 0.37 0.35 0.38 0.45 0.56 0.62 0.67 0.55 0.51 0.57 0.67 0.79 0.91 0.94 0.87 0.92
0.45 0.36 0.29 0.27 0.27 0.27 0.28 0.30 0.32 0.35 0.39 0.44 0.47 0.49 0.51 0.50 0.45 0.39 0.41 0.50 0.52 0.44 0.40 0.38 0.44 0.54 0.52 0.47 0.52 0.62 0.65 0.72 0.78 0.84 1.00 1.18 1.03 0.90
0.43 0.32 0.25 0.23 0.24 0.27 0.31 0.35 0.36 0.37 0.43 0.51 0.56 0.59 0.61 0.58 0.53 0.49 0.46 0.48 0.47 0.43 0.40 0.42 0.55 0.85 0.89 0.56 0.37 0.55 0.87 0.95 0.90 0.92 1.00 1.20 1.34 1.13
0.32 0.26 0.24 0.24 0.27 0.32 0.36 0.39 0.41 0.43 0.47 0.51 0.55 0.60 0.67 0.69 0.62 0.55 0.53 0.55 0.57 0.51 0.43 0.40 0.50 0.85 1.25 1.06 0.76 0.58 0.70 1.02 1.24 1.29 1.09 0.95 1.00 1.01
0.23 0.23 0.26 0.30 0.35 0.39 0.41 0.44 0.48 0.51 0.50 0.54 0.56 0.60 0.67 0.76 0.68 0.58 0.58 0.56 0.61 0.60 0.54 0.42 0.42 0.59 0.89 1.07 0.91 0.61 0.63 0.75 1.07 1.47 1.42 1.22 1.01 0.92
0.25 0.28 0.31 0.37 0.44 0.49 0.50 0.51 0.52 0.50 0.51 0.55 0.56 0.59 0.63 0.73 0.75 0.67 0.65 0.66 0.61 0.60 0.57 0.46 0.44 0.52 0.71 0.95 0.83 0.59 0.58 0.57 0.59 0.71 1.06 1.54 2.01 2.10
0.31 0.34 0.37 0.43 0.49 0.53 0.55 0.54 0.52 0.49 0.49 0.57 0.61 0.61 0.65 0.69 0.67 0.71 0.71 0.72 0.73 0.65 0.59 0.54 0.47 0.48 0.54 0.63 0.71 0.64 0.57 0.53 0.50 0.55 0.76 0.94 1.20 1.47

GEFSNE_prec_meanprecacc_162.txt.gz
Total_Precipitation_Accumulation
1.23 1.22 1.18 1.09 1.10 1.10 1.12 1.20 1.30 1.15 0.86 0.67 0.63 0.64 0.67 0.71 0.80 0.77 0.72 0.86 0.87 0.82 0.84 0.85 0.84 0.82 0.80 0.82 0.91 1.07 1.18 1.23 1.27 1.35 1.41 1.38 1.32 1.36
1.10 1.15 1.13 1.06 1.04 1.06 1.09 1.13 1.23 1.29 1.09 0.74 0.62 0.61 0.66 0.68 0.76 0.69 0.65 0.78 0.76 0.74 0.73 0.72 0.71 0.69 0.68 0.68 0.71 0.79 0.89 0.98 1.05 1.16 1.33 1.47 1.52 1.54
0.96 0.99 1.01 1.01 1.04 1.04 1.06 1.11 1.16 1.24 1.22 0.91 0.73 0.71 0.75 0.74 0.73 0.67 0.61 0.60 0.59 0.69 0.65 0.62 0.61 0.60 0.60 0.60 0.61 0.64 0.68 0.75 0.85 0.96 1.09 1.25 1.37 1.41
0.81 0.86 0.88 0.91 0.95 0.98 1.04 1.09 1.12 1.15 1.18 1.04 0.82 0.73 0.71 0.69 0.66 0.63 0.58 0.53 0.48 0.58 0.56 0.53 0.52 0.51 0.50 0.50 0.53 0.58 0.60 0.63 0.69 0.75 0.83 0.95 1.08 1.20
0.72 0.75 0.77 0.83 0.89 0.90 0.93 0.97 0.98 0.99 1.04 1.01 0.84 0.69 0.63 0.59 0.59 0.54 0.49 0.46 0.42 0.45 0.47 0.46 0.46 0.47 0.48 0.48 0.50 0.52 0.51 0.50 0.51 0.56 0.63 0.74 0.84 0.93
0.69 0.71 0.73 0.76 0.78 0.80 0.85 0.87 0.87 0.88 0.89 0.92 0.87 0.76 0.69 0.63 0.63 0.59 0.53 0.47 0.44 0.40 0.45 0.45 0.46 0.45 0.42 0.41 0.40 0.42 0.44 0.45 0.50 0.56 0.61 0.67 0.74 0.81
0.69 0.70 0.73 0.79 0.80 0.78 0.77 0.77 0.78 0.83 0.87 0.93 0.89 0.76 0.63 0.59 0.58 0.53 0.53 0.52 0.51 0.47 0.45 0.41 0.37 0.34 0.32 0.34 0.37 0.39 0.43 0.48 0.52 0.57 0.62 0.67 0.71 0.78
0.67 0.65 0.64 0.68 0.67 0.68 0.67 0.67 0.71 0.80 0.90 0.95 0.84 0.67 0.52 0.46 0.46 0.50 0.56 0.61 0.54 0.38 0.39 0.38 0.35 0.35 0.31 0.29 0.37 0.40 0.42 0.44 0.47 0.50 0.53 0.59 0.65 0.70
0.63 0.59 0.54 0.52 0.54 0.47 0.50 0.54 0.57 0.65 0.67 0.61 0.55 0.47 0.43 0.41 0.50 0.60 0.59 0.57 0.46 0.33 0.39 0.44 0.38 0.36 0.31 0.32 0.38 0.36 0.38 0.40 0.44 0.49 0.51 0.54 0.58 0.63
0.49 0.44 0.40 0.37 0.35 0.37 0.39 0.47 0.45 0.44 0.43 0.39 0.37 0.35 0.35 0.38 0.47 0.59 0.60 0.59 0.47 0.37 0.38 0.41 0.33 0.31 0.27 0.29 0.36 0.37 0.37 0.41 0.46 0.53 0.56 0.57 0.58 0.62
0.37 0.34 0.34 0.31 0.37 0.43 0.43 0.45 0.36 0.31 0.35 0.39 0.41 0.40 0.41 0.41 0.42 0.53 0.63 0.70 0.61 0.40 0.33 0.35 0.30 0.28 0.29 0.28 0.31 0.37 0.37 0.39 0.41 0.44 0.48 0.51 0.56 0.61
0.29 0.29 0.34 0.34 0.40 0.47 0.43 0.39 0.32 0.28 0.30 0.34 0.37 0.39 0.38 0.40 0.44 0.45 0.60 0.83 0.73 0.50 0.27 0.33 0.35 0.41 0.55 0.33 0.27 0.30 0.33 0.36 0.39 0.42 0.45 0.50 0.57 0.61
0.25 0.26 0.29 0.39 0.45 0.48 0.41 0.33 0.34 0.38 0.34 0.33 0.34 0.36 0.38 0.40 0.42 0.40 0.46 0.80 1.00 0.71 0.32 0.56 0.71 0.53 0.68 0.48 0.29 0.28 0.30 0.32 0.36 0.40 0.45 0.51 0.60 0.74
0.23 0.23 0.27 0.39 0.41 0.39 0.37 0.36 0.40 0.38 0.31 0.34 0.37 0.35 0.34 0.33 0.32 0.34 0.36 0.42 0.57 0.66 0.47 0.72 1.06 0.80 0.89 0.71 0.39 0.30 0.30 0.32 0.40 0.49 0.54 0.63 0.68 0.75
0.25 0.27 0.31 0.33 0.31 0.32 0.35 0.39 0.38 0.34 0.32 0.35 0.35 0.33 0.31 0.31 0.33 0.37 0.39 0.38 0.38 0.36 0.38 0.47 0.74 0.81 0.98 0.95 0.60 0.37 0.37 0.37 0.40 0.54 0.63 0.68 0.68 0.73
0.30 0.29 0.28 0.27 0.28 0.29 0.31 0.33 0.34 0.35 0.38 0.39 0.36 0.33 0.33 0.36 0.38 0.40 0.44 0.44 0.47 0.40 0.36 0.35 0.44 0.71 0.89 0.69 0.70 0.59 0.48 0.55 0.50 0.60 0.70 0.73 0.77 0.81
0.38 0.34 0.30 0.29 0.28 0.27 0.28 0.29 0.31 0.34 0.39 0.39 0.41 0.42 0.40 0.40 0.38 0.38 0.44 0.50 0.54 0.44 0.37 0.35 0.38 0.45 0.56 0.62 0.67 0.55 0.51 0.57 0.67 0.79 0.91 0.94 0.88 0.92
0.48 0.38 0.31 0.28 0.29 0.28 0.29 0.31 0.34 0.37 0.40 0.45 0.48 0.50 0.52 0.50 0.46 0.39 0.41 0.50 0.52 0.44 0.40 0.38 0.44 0.54 0.52 0.47 0.52 0.62 0.65 0.72 0.78 0.84 1.01 1.18 1.03 0.90
0.44 0.33 0.26 0.24 0.25 0.28 0.32 0.36 0.37 0.38 0.44 0.52 0.57 0.60 0.62 0.58 0.54 0.50 0.46 0.48 0.48 0.43 0.40 0.43 0.55 0.85 0.90 0.56 0.37 0.55 0.87 0.95 0.90 0.92 1.00 1.20 1.34 1.13
0.32 0.27 0.25 0.25 0.28 0.33 0.37 0.40 0.42 0.44 0.48 0.52 0.56 0.61 0.68 0.69 0.63 0.56 0.53 0.55 0.57 0.51 0.43 0.40 0.50 0.86 1.26 1.07 0.77 0.58 0.70 1.03 1.25 1.29 1.09 0.95 1.00 1.01
0.24 0.24 0.27 0.31 0.37 0.40 0.43 0.46 0.49 0.51 0.51 0.55 0.57 0.60 0.68 0.77 0.69 0.58 0.58 0.56 0.61 0.61 0.55 0.42 0.42 0.59 0.90 1.08 0.92 0.61 0.63 0.76 1.08 1.48 1.43 1.23 1.02 0.92
0.26 0.29 0.33 0.38 0.45 0.50 0.52 0.53 0.53 0.51 0.52 0.56 0.57 0.60 0.64 0.75 0.76 0.68 0.65 0.66 0.62 0.61 0.57 0.46 0.44 0.53 0.72 0.97 0.84 0.60 0.58 0.57 0.59 0.71 1.06 1.56 2.05 2.14
0.33 0.36 0.39 0.44 0.51 0.55 0.57 0.55 0.54 0.50 0.50 0.58 0.62 0.62 0.66 0.70 0.68 0.72 0.72 0.73 0.73 0.65 0.60 0.54 0.48 0.49 0.54 0.64 0.72 0.64 0.57 0.53 0.50 0.55 0.76 0.94 1.21 1.49

GEFSNE_prec_meanprecacc_168.txt.gz
Total_Precipitation_Accumulation
1.25 1.25 1.21 1.12 1.12 1.12 1.14 1.22 1.32 1.17 0.87 0.68 0.64 0.64 0.68 0.71 0.80 0.77 0.72 0.86 0.87 0.83 0.84 0.85 0.84 0.82 0.80 0.82 0.91 1.07 1.18 1.23 1.27 1.35 1.41 1.39 1.33 1.36
1.11 1.16 1.16 1.10 1.08 1.10 1.13 1.17 1.26 1.31 1.11 0.74 0.63 0.62 0.66 0.68 0.77 0.70 0.65 0.78 0.76 0.75 0.73 0.72 0.71 0.69 0.68 0.69 0.71 0.80 0.89 0.98 1.05 1.16 1.33 1.48 1.53 1.55
0.97 0.99 1.02 1.04 1.08 1.09 1.11 1.15 1.21 1.27 1.25 0.92 0.74 0.72 0.75 0.74 0.74 0.68 0.62 0.61 0.60 0.70 0.66 0.62 0.61 0.60 0.60 0.60 0.61 0.64 0.68 0.75 0.85 0.97 1.10 1.26 1.38 1.42
0.82 0.87 0.89 0.92 0.96 1.00 1.07 1.12 1.15 1.18 1.20 1.05 0.83 0.74 0.72 0.69 0.66 0.64 0.58 0.54 0.49 0.60 0.58 0.55 0.54 0.52 0.50 0.50 0.54 0.58 0.60 0.63 0.69 0.76 0.84 0.96 1.09 1.21
0.73 0.76 0.78 0.84 0.90 0.91 0.94 0.98 0.99 1.01 1.05 1.02 0.85 0.70 0.63 0.60 0.59 0.55 0.50 0.47 0.43 0.47 0.48 0.48 0.48 0.49 0.50 0.49 0.51 0.52 0.52 0.51 0.52 0.57 0.64 0.75 0.85 0.94
0.70 0.72 0.74 0.77 0.79 0.81 0.85 0.87 0.87 0.88 0.90 0.92 0.87 0.76 0.69 0.63 0.64 0.60 0.54 0.49 0.45 0.41 0.46 0.47 0.48 0.48 0.44 0.42 0.41 0.43 0.44 0.46 0.50 0.56 0.62 0.68 0.75 0.82
0.70 0.71 0.74 0.81 0.82 0.79 0.78 0.77 0.78 0.83 0.88 0.94 0.90 0.77 0.64 0.60 0.59 0.54 0.54 0.53 0.52 0.48 0.47 0.43 0.39 0.35 0.33 0.35 0.37 0.40 0.44 0.48 0.53 0.57 0.62 0.68 0.72 0.79
0.68 0.66 0.65 0.70 0.68 0.69 0.68 0.67 0.72 0.80 0.91 0.95 0.85 0.68 0.53 0.47 0.47 0.52 0.57 0.62 0.56 0.40 0.41 0.40 0.37 0.37 0.32 0.30 0.37 0.41 0.42 0.45 0.48 0.50 0.54 0.60 0.65 0.71
0.64 0.59 0.55 0.53 0.55 0.48 0.51 0.55 0.57 0.65 0.68 0.61 0.55 0.47 0.44 0.42 0.51 0.61 0.60 0.59 0.48 0.35 0.41 0.45 0.39 0.37 0.32 0.32 0.39 0.37 0.38 0.41 0.45 0.49 0.52 0.55 0.58 0.63
0.49 0.44 0.41 0.38 0.36 0.37 0.40 0.48 0.46 0.44 0.43 0.40 0.37 0.35 0.35 0.38 0.48 0.59 0.61 0.60 0.49 0.38 0.39 0.42 0.34 0.31 0.28 0.29 0.36 0.37 0.37 0.41 0.47 0.53 0.56 0.57 0.59 0.62
0.37 0.34 0.34 0.32 0.37 0.44 0.44 0.45 0.36 0.31 0.35 0.40 0.42 0.41 0.41 0.41 0.42 0.53 0.64 0.71 0.62 0.41 0.33 0.35 0.30 0.29 0.29 0.28 0.31 0.37 0.37 0.39 0.41 0.44 0.48 0.52 0.56 0.61
0.29 0.29 0.34 0.34 0.41 0.48 0.44 0.39 0.33 0.29 0.30 0.34 0.38 0.40 0.38 0.40 0.45 0.45 0.60 0.84 0.73 0.51 0.28 0.33 0.35 0.41 0.55 0.33 0.27 0.30 0.33 0.36 0.39 0.42 0.46 0.51 0.57 0.61
0.25 0.26 0.29 0.39 0.45 0.48 0.42 0.33 0.34 0.38 0.34 0.33 0.35 0.37 0.38 0.40 0.42 0.40 0.47 0.80 1.00 0.72 0.33 0.56 0.71 0.54 0.69 0.48 0.29 0.28 0.30 0.32 0.36 0.41 0.45 0.51 0.61 0.75
0.24 0.23 0.27 0.39 0.41 0.39 0.37 0.36 0.40 0.39 0.32 0.35 0.37 0.36 0.34 0.33 0.33 0.35 0.37 0.42 0.57 0.66 0.47 0.72 1.07 0.80 0.90 0.72 0.40 0.30 0.30 0.32 0.40 0.49 0.54 0.63 0.68 0.75
0.25 0.28 0.31 0.33 0.32 0.32 0.35 0.40 0.39 0.34 0.33 0.36 0.36 0.34 0.32 0.32 0.34 0.38 0.39 0.39 0.38 0.37 0.38 0.48 0.74 0.81 0.99 0.96 0.61 0.37 0.37 0.37 0.40 0.54 0.63 0.68 0.68 0.73
0.30 0.30 0.29 0.28 0.28 0.29 0.31 0.33 0.35 0.35 0.39 0.40 0.37 0.34 0.35 0.37 0.40 0.42 0.45 0.45 0.48 0.41 0.36 0.36 0.45 0.72 0.89 0.70 0.71 0.59 0.48 0.55 0.50 0.60 0.70 0.73 0.77 0.81
0.39 0.34 0.31 0.30 0.29 0.28 0.28 0.30 0.32 0.35 0.40 0.39 0.42 0.43 0.42 0.41 0.40 0.40 0.46 0.51 0.55 0.44 0.38 0.36 0.38 0.46 0.57 0.62 0.67 0.55 0.51 0.57 0.67 0.79 0.91 0.94 0.88 0.92
0.49 0.38 0.31 0.29 0.29 0.29 0.30 0.32 0.35 0.38 0.42 0.47 0.50 0.52 0.54 0.52 0.48 0.41 0.43 0.52 0.53 0.45 0.41 0.39 0.44 0.55 0.53 0.48 0.52 0.63 0.65 0.73 0.78 0.84 1.01 1.18 1.03 0.90
0.45 0.34 0.27 0.25 0.26 0.29 0.33 0.37 0.39 0.39 0.46 0.54 0.59 0.63 0.65 0.61 0.56 0.52 0.48 0.50 0.49 0.44 0.41 0.43 0.56 0.87 0.91 0.57 0.37 0.55 0.87 0.96 0.90 0.92 1.00 1.20 1.35 1.13
0.33 0.28 0.25 0.26 0.29 0.34 0.38 0.41 0.44 0.46 0.50 0.54 0.58 0.63 0.71 0.72 0.66 0.58 0.55 0.57 0.59 0.52 0.44 0.40 0.51 0.87 1.28 1.09 0.78 0.58 0.71 1.03 1.26 1.30 1.09 0.95 1.01 1.01
0.24 0.25 0.28 0.33 0.38 0.41 0.44 0.47 0.51 0.54 0.53 0.57 0.59 0.63 0.71 0.80 0.71 0.60 0.60 0.58 0.63 0.62 0.56 0.43 0.42 0.60 0.91 1.10 0.93 0.61 0.63 0.76 1.09 1.50 1.45 1.24 1.03 0.93
0.26 0.30 0.34 0.40 0.47 0.52 0.54 0.55 0.56 0.53 0.54 0.58 0.59 0.62 0.67 0.77 0.78 0.69 0.67 0.68 0.63 0.62 0.59 0.47 0.44 0.53 0.73 0.98 0.85 0.60 0.58 0.57 0.59 0.71 1.07 1.57 2.07 2.16
0.33 0.37 0.40 0.46 0.52 0.57 0.59 0.58 0.57 0.53 0.53 0.60 0.64 0.65 0.69 0.73 0.70 0.74 0.74 0.75 0.75 0.67 0.61 0.55 0.48 0.49 0.55 0.65 0.72 0.65 0.57 0.53 0.50 0.56 0.77 0.95 1.21 1.50

GEFSNE_prec_meanprecacc_174.txt.gz
Total_Precipitation_Accumulation
1.28 1.28 1.23 1.13 1.13 1.14 1.15 1.22 1.32 1.17 0.88 0.68 0.64 0.65 0.69 0.71 0.81 0.78 0.72 0.86 0.87 0.83 0.85 0.85 0.84 0.82 0.80 0.82 0.91 1.07 1.18 1.23 1.28 1.36 1.43 1.40 1.34 1.38
1.12 1.18 1.19 1.11 1.09 1.11 1.14 1.18 1.26 1.32 1.11 0.75 0.63 0.63 0.67 0.69 0.78 0.71 0.66 0.79 0.77 0.75 0.74 0.72 0.72 0.70 0.69 0.69 0.71 0.80 0.89 0.98 1.06 1.17 1.35 1.49 1.54 1.56
0.98 1.01 1.03 1.06 1.09 1.10 1.11 1.16 1.22 1.28 1.25 0.93 0.74 0.72 0.76 0.75 0.75 0.69 0.63 0.62 0.61 0.71 0.66 0.63 0.62 0.61 0.61 0.61 0.62 0.64 0.68 0.75 0.86 0.98 1.11 1.27 1.39 1.43
0.84 0.89 0.90 0.93 0.98 1.02 1.08 1.13 1.16 1.19 1.22 1.07 0.84 0.75 0.73 0.70 0.67 0.65 0.60 0.54 0.50 0.61 0.59 0.56 0.55 0.53 0.51 0.51 0.54 0.58 0.60 0.64 0.70 0.77 0.84 0.96 1.10 1.22
0.74 0.77 0.80 0.85 0.90 0.91 0.95 0.99 1.00 1.02 1.07 1.04 0.87 0.72 0.65 0.61 0.61 0.56 0.51 0.48 0.44 0.48 0.49 0.49 0.49 0.50 0.51 0.50 0.52 0.54 0.53 0.51 0.53 0.59 0.66 0.77 0.87 0.96
0.71 0.73 0.76 0.79 0.80 0.82 0.86 0.87 0.88 0.89 0.91 0.94 0.89 0.78 0.71 0.65 0.66 0.61 0.55 0.49 0.46 0.41 0.47 0.48 0.50 0.50 0.46 0.44 0.43 0.45 0.47 0.48 0.52 0.58 0.64 0.70 0.77 0.85
0.70 0.72 0.75 0.82 0.84 0.81 0.79 0.78 0.79 0.84 0.89 0.95 0.92 0.78 0.65 0.61 0.59 0.55 0.54 0.54 0.53 0.48 0.47 0.43 0.40 0.36 0.34 0.36 0.39 0.42 0.46 0.50 0.55 0.59 0.64 0.70 0.74 0.80
0.68 0.66 0.66 0.70 0.70 0.70 0.69 0.68 0.73 0.80 0.91 0.96 0.86 0.70 0.55 0.48 0.47 0.52 0.58 0.63 0.56 0.40 0.41 0.40 0.37 0.37 0.33 0.31 0.39 0.43 0.44 0.46 0.49 0.51 0.54 0.60 0.66 0.72
0.64 0.59 0.56 0.54 0.56 0.48 0.52 0.56 0.58 0.66 0.69 0.62 0.56 0.48 0.45 0.43 0.52 0.62 0.61 0.60 0.48 0.35 0.42 0.46 0.40 0.38 0.33 0.34 0.41 0.38 0.39 0.41 0.45 0.50 0.52 0.55 0.59 0.64
0.49 0.44 0.41 0.38 0.37 0.38 0.41 0.48 0.46 0.45 0.44 0.40 0.38 0.36 0.36 0.39 0.49 0.61 0.63 0.62 0.50 0.40 0.40 0.44 0.35 0.32 0.29 0.30 0.38 0.38 0.38 0.41 0.47 0.53 0.57 0.58 0.59 0.63
0.37 0.34 0.34 0.32 0.38 0.45 0.45 0.46 0.37 0.32 0.36 0.41 0.43 0.41 0.42 0.42 0.43 0.54 0.65 0.73 0.64 0.43 0.34 0.36 0.32 0.30 0.30 0.29 0.32 0.38 0.38 0.39 0.42 0.44 0.48 0.52 0.56 0.62
0.29 0.29 0.34 0.34 0.41 0.49 0.45 0.41 0.35 0.30 0.31 0.35 0.39 0.40 0.39 0.40 0.45 0.46 0.61 0.85 0.75 0.53 0.29 0.34 0.36 0.43 0.57 0.34 0.28 0.31 0.34 0.37 0.40 0.42 0.46 0.51 0.57 0.61
0.26 0.26 0.29 0.39 0.46 0.49 0.43 0.35 0.36 0.40 0.36 0.35 0.36 0.37 0.39 0.41 0.43 0.41 0.47 0.81 1.02 0.73 0.34 0.57 0.73 0.55 0.70 0.49 0.30 0.28 0.30 0.33 0.37 0.41 0.45 0.51 0.61 0.75
0.24 0.23 0.27 0.40 0.42 0.40 0.38 0.38 0.42 0.41 0.34 0.37 0.39 0.38 0.35 0.34 0.33 0.35 0.38 0.43 0.59 0.68 0.48 0.74 1.08 0.81 0.91 0.73 0.40 0.31 0.31 0.32 0.40 0.49 0.55 0.63 0.68 0.75
0.25 0.28 0.32 0.33 0.32 0.32 0.36 0.41 0.40 0.36 0.35 0.38 0.38 0.36 0.33 0.33 0.35 0.39 0.41 0.40 0.40 0.38 0.40 0.49 0.75 0.82 1.01 0.97 0.62 0.38 0.38 0.37 0.40 0.55 0.63 0.68 0.69 0.73
0.30 0.30 0.29 0.28 0.29 0.30 0.32 0.34 0.35 0.36 0.40 0.42 0.39 0.36 0.36 0.39 0.42 0.43 0.47 0.47 0.50 0.43 0.38 0.37 0.46 0.73 0.90 0.71 0.71 0.60 0.49 0.55 0.50 0.60 0.70 0.73 0.77 0.81
0.39 0.34 0.31 0.30 0.29 0.28 0.29 0.30 0.32 0.36 0.41 0.41 0.44 0.45 0.44 0.44 0.42 0.42 0.48 0.54 0.57 0.46 0.40 0.38 0.40 0.47 0.57 0.63 0.68 0.56 0.51 0.57 0.67 0.79 0.91 0.95 0.88 0.92
0.49 0.39 0.32 0.29 0.30 0.29 0.30 0.33 0.36 0.39 0.43 0.48 0.52 0.54 0.56 0.55 0.50 0.44 0.46 0.55 0.56 0.47 0.42 0.41 0.47 0.57 0.54 0.48 0.52 0.63 0.66 0.73 0.78 0.84 1.01 1.19 1.03 0.90
0.46 0.34 0.27 0.25 0.27 0.30 0.34 0.38 0.40 0.40 0.47 0.56 0.61 0.65 0.67 0.63 0.59 0.55 0.51 0.53 0.51 0.46 0.43 0.45 0.59 0.89 0.93 0.58 0.37 0.56 0.88 0.96 0.90 0.92 1.01 1.20 1.35 1.13
0.34 0.28 0.26 0.27 0.30 0.35 0.39 0.43 0.45 0.47 0.52 0.56 0.60 0.66 0.73 0.76 0.69 0.61 0.58 0.60 0.61 0.54 0.46 0.42 0.52 0.89 1.30 1.11 0.79 0.58 0.71 1.04 1.26 1.30 1.09 0.95 1.01 1.01
0.25 0.25 0.28 0.33 0.39 0.42 0.45 0.49 0.53 0.55 0.55 0.59 0.61 0.65 0.74 0.83 0.75 0.63 0.63 0.61 0.66 0.65 0.58 0.44 0.44 0.62 0.93 1.12 0.95 0.62 0.63 0.76 1.10 1.51 1.46 1.25 1.03 0.93
0.27 0.31 0.35 0.41 0.48 0.53 0.55 0.56 0.58 0.55 0.56 0.60 0.62 0.65 0.70 0.81 0.81 0.73 0.71 0.71 0.66 0.64 0.60 0.49 0.46 0.55 0.75 1.00 0.86 0.60 0.58 0.57 0.59 0.71 1.07 1.58 2.09 2.18
0.34 0.38 0.41 0.47 0.53 0.58 0.61 0.60 0.59 0.55 0.55 0.63 0.67 0.68 0.72 0.76 0.73 0.77 0.77 0.78 0.78 0.70 0.63 0.57 0.50 0.51 0.57 0.66 0.74 0.65 0.58 0.53 0.50 0.56 0.77 0.95 1.21 1.50

GEFSNE_prec_meanprecacc_180.txt.gz
Total_Precipitation_Accumulation
1.29 1.30 1.26 1.16 1.15 1.16 1.17 1.24 1.34 1.19 0.89 0.68 0.65 0.65 0.69 0.72 0.81 0.78 0.72 0.86 0.87 0.83 0.85 0.85 0.84 0.82 0.80 0.83 0.92 1.07 1.18 1.24 1.28 1.37 1.43 1.41 1.36 1.39
1.13 1.19 1.21 1.14 1.11 1.13 1.16 1.19 1.28 1.33 1.12 0.76 0.64 0.63 0.67 0.70 0.78 0.71 0.66 0.79 0.77 0.75 0.74 0.72 0.72 0.70 0.69 0.69 0.72 0.80 0.90 0.99 1.06 1.17 1.35 1.50 1.56 1.58
0.98 1.01 1.04 1.07 1.12 1.12 1.14 1.18 1.23 1.29 1.26 0.93 0.75 0.73 0.77 0.76 0.76 0.70 0.63 0.62 0.61 0.71 0.67 0.64 0.62 0.62 0.61 0.61 0.62 0.65 0.68 0.75 0.86 0.98 1.12 1.27 1.39 1.44
0.84 0.89 0.91 0.94 0.99 1.04 1.10 1.15 1.18 1.20 1.22 1.07 0.84 0.75 0.74 0.71 0.68 0.65 0.60 0.56 0.51 0.62 0.61 0.57 0.56 0.54 0.52 0.52 0.55 0.59 0.61 0.64 0.70 0.77 0.85 0.97 1.10 1.22
0.74 0.78 0.81 0.86 0.92 0.93 0.97 1.01 1.02 1.04 1.08 1.05 0.87 0.72 0.66 0.62 0.62 0.58 0.53 0.50 0.46 0.50 0.52 0.51 0.51 0.52 0.52 0.52 0.53 0.54 0.53 0.52 0.54 0.59 0.66 0.77 0.87 0.96
0.71 0.74 0.76 0.79 0.81 0.83 0.88 0.90 0.90 0.91 0.93 0.96 0.89 0.78 0.72 0.67 0.68 0.64 0.58 0.52 0.49 0.44 0.50 0.51 0.52 0.52 0.48 0.45 0.44 0.45 0.47 0.49 0.53 0.59 0.65 0.71 0.78 0.87
0.70 0.72 0.75 0.83 0.84 0.82 0.81 0.80 0.81 0.86 0.90 0.97 0.94 0.79 0.66 0.62 0.61 0.57 0.56 0.55 0.55 0.51 0.50 0.46 0.41 0.37 0.36 0.38 0.40 0.43 0.46 0.51 0.55 0.59 0.65 0.71 0.76 0.83
0.68 0.66 0.66 0.71 0.70 0.71 0.71 0.70 0.75 0.83 0.94 0.98 0.87 0.71 0.56 0.49 0.49 0.54 0.59 0.64 0.58 0.41 0.42 0.41 0.39 0.38 0.34 0.32 0.40 0.44 0.45 0.47 0.50 0.52 0.55 0.61 0.67 0.73
0.64 0.59 0.56 0.54 0.56 0.49 0.52 0.57 0.60 0.68 0.71 0.65 0.58 0.50 0.46 0.45 0.54 0.64 0.63 0.62 0.50 0.36 0.43 0.47 0.41 0.39 0.34 0.35 0.42 0.39 0.40 0.42 0.46 0.51 0.53 0.56 0.60 0.65
0.49 0.44 0.41 0.38 0.37 0.39 0.41 0.49 0.47 0.46 0.45 0.42 0.40 0.38 0.38 0.41 0.51 0.63 0.65 0.64 0.52 0.41 0.41 0.44 0.36 0.33 0.30 0.31 0.39 0.39 0.39 0.42 0.48 0.54 0.57 0.58 0.60 0.64
0.37 0.34 0.34 0.32 0.38 0.45 0.45 0.47 0.38 0.33 0.37 0.41 0.44 0.43 0.44 0.44 0.45 0.56 0.67 0.75 0.66 0.44 0.35 0.37 0.32 0.31 0.31 0.30 0.33 0.39 0.38 0.40 0.43 0.45 0.49 0.53 0.57 0.63
0.29 0.29 0.34 0.34 0.41 0.49 0.45 0.41 0.35 0.31 0.32 0.36 0.39 0.41 0.39 0.41 0.47 0.47 0.62 0.87 0.77 0.54 0.30 0.35 0.37 0.44 0.58 0.35 0.29 0.31 0.34 0.38 0.41 0.43 0.46 0.51 0.58 0.62
0.26 0.26 0.29 0.39 0.46 0.49 0.43 0.36 0.37 0.41 0.37 0.35 0.36 0.37 0.39 0.41 0.43 0.42 0.49 0.83 1.04 0.75 0.35 0.59 0.75 0.57 0.72 0.51 0.31 0.29 0.31 0.33 0.38 0.41 0.46 0.52 0.61 0.75
0.24 0.24 0.28 0.40 0.42 0.40 0.39 0.39 0.43 0.41 0.34 0.37 0.40 0.38 0.36 0.34 0.34 0.36 0.39 0.45 0.60 0.69 0.50 0.76 1.11 0.84 0.94 0.76 0.42 0.32 0.32 0.33 0.41 0.50 0.55 0.64 0.68 0.76
0.26 0.28 0.32 0.34 0.33 0.33 0.36 0.41 0.41 0.36 0.36 0.39 0.39 0.37 0.34 0.34 0.36 0.40 0.42 0.42 0.41 0.40 0.42 0.51 0.78 0.85 1.04 1.00 0.64 0.40 0.39 0.38 0.41 0.55 0.64 0.68 0.69 0.74
0.30 0.30 0.30 0.28 0.29 0.30 0.32 0.35 0.36 0.37 0.41 0.43 0.40 0.37 0.38 0.40 0.43 0.45 0.48 0.49 0.52 0.45 0.40 0.40 0.49 0.77 0.94 0.73 0.74 0.62 0.50 0.56 0.51 0.61 0.70 0.73 0.77 0.81
0.40 0.34 0.31 0.30 0.29 0.28 0.29 0.31 0.33 0.37 0.42 0.43 0.46 0.47 0.46 0.45 0.44 0.44 0.51 0.56 0.60 0.48 0.41 0.40 0.44 0.51 0.61 0.66 0.71 0.58 0.53 0.59 0.67 0.79 0.92 0.95 0.88 0.92
0.50 0.39 0.32 0.30 0.30 0.29 0.30 0.33 0.37 0.40 0.44 0.50 0.54 0.57 0.58 0.57 0.53 0.47 0.49 0.58 0.59 0.49 0.44 0.43 0.50 0.61 0.58 0.51 0.54 0.65 0.67 0.74 0.79 0.85 1.01 1.19 1.04 0.90
0.47 0.35 0.28 0.26 0.27 0.30 0.35 0.39 0.41 0.42 0.49 0.58 0.64 0.67 0.69 0.66 0.62 0.58 0.54 0.56 0.54 0.48 0.45 0.48 0.62 0.93 0.96 0.59 0.39 0.57 0.89 0.97 0.91 0.93 1.01 1.21 1.35 1.13
0.34 0.29 0.27 0.27 0.31 0.36 0.40 0.43 0.46 0.48 0.53 0.58 0.62 0.68 0.76 0.79 0.72 0.64 0.60 0.62 0.64 0.57 0.49 0.45 0.55 0.91 1.33 1.13 0.81 0.59 0.72 1.05 1.27 1.31 1.10 0.96 1.01 1.01
0.25 0.26 0.29 0.34 0.39 0.43 0.46 0.49 0.54 0.56 0.56 0.61 0.64 0.68 0.77 0.86 0.77 0.65 0.66 0.64 0.69 0.68 0.60 0.46 0.45 0.64 0.96 1.15 0.97 0.63 0.64 0.77 1.10 1.52 1.47 1.26 1.04 0.93
0.27 0.31 0.35 0.41 0.49 0.54 0.56 0.57 0.59 0.56 0.58 0.62 0.64 0.67 0.73 0.84 0.84 0.75 0.73 0.74 0.69 0.67 0.63 0.51 0.48 0.58 0.78 1.02 0.87 0.61 0.59 0.57 0.59 0.71 1.08 1.59 2.10 2.19
0.35 0.39 0.42 0.48 0.54 0.60 0.62 0.61 0.60 0.56 0.56 0.65 0.69 0.70 0.74 0.79 0.75 0.80 0.80 0.81 0.81 0.72 0.66 0.60 0.52 0.53 0.58 0.67 0.75 0.66 0.58 0.54 0.50 0.56 0.77 0.95 1.22 1.51

GEFSNE_prec_meanprecacc_186.txt.gz
Total_Precipitation_Accumulation
1.29 1.31 1.26 1.16 1.16 1.17 1.18 1.25 1.35 1.20 0.90 0.70 0.67 0.67 0.71 0.73 0.81 0.78 0.72 0.86 0.87 0.83 0.85 0.86 0.84 0.82 0.81 0.83 0.92 1.08 1.19 1.24 1.29 1.37 1.44 1.42 1.36 1.40
1.13 1.20 1.21 1.15 1.12 1.14 1.17 1.21 1.29 1.35 1.14 0.77 0.66 0.66 0.71 0.73 0.80 0.71 0.66 0.79 0.78 0.75 0.74 0.73 0.72 0.70 0.69 0.70 0.72 0.80 0.90 0.99 1.06 1.18 1.36 1.50 1.56 1.58
0.99 1.02 1.05 1.08 1.13 1.14 1.15 1.20 1.24 1.31 1.27 0.94 0.76 0.75 0.79 0.78 0.78 0.71 0.64 0.62 0.61 0.71 0.67 0.64 0.62 0.62 0.62 0.61 0.62 0.65 0.69 0.76 0.86 0.99 1.12 1.28 1.40 1.44
0.85 0.90 0.91 0.95 1.00 1.04 1.11 1.17 1.20 1.22 1.24 1.08 0.85 0.77 0.75 0.73 0.70 0.67 0.62 0.56 0.51 0.62 0.61 0.57 0.56 0.54 0.53 0.52 0.55 0.60 0.62 0.65 0.71 0.78 0.86 0.98 1.11 1.23
0.75 0.78 0.81 0.86 0.92 0.94 0.98 1.02 1.03 1.05 1.10 1.06 0.88 0.73 0.68 0.64 0.64 0.60 0.55 0.51 0.46 0.50 0.52 0.52 0.52 0.52 0.53 0.53 0.54 0.55 0.55 0.53 0.55 0.60 0.67 0.78 0.88 0.97
0.71 0.74 0.76 0.80 0.82 0.84 0.88 0.90 0.91 0.92 0.94 0.97 0.90 0.80 0.73 0.68 0.70 0.67 0.61 0.55 0.50 0.45 0.51 0.51 0.53 0.52 0.49 0.46 0.45 0.47 0.49 0.50 0.55 0.61 0.66 0.72 0.79 0.87
0.70 0.72 0.75 0.83 0.85 0.83 0.81 0.80 0.81 0.86 0.91 0.98 0.94 0.80 0.68 0.64 0.64 0.60 0.59 0.59 0.58 0.53 0.52 0.47 0.43 0.39 0.37 0.39 0.42 0.45 0.48 0.53 0.57 0.61 0.66 0.72 0.77 0.84
0.68 0.66 0.66 0.71 0.70 0.72 0.72 0.71 0.76 0.84 0.94 0.99 0.89 0.73 0.58 0.52 0.51 0.57 0.62 0.68 0.61 0.44 0.45 0.44 0.41 0.40 0.36 0.34 0.43 0.46 0.47 0.48 0.51 0.53 0.56 0.62 0.68 0.75
0.64 0.59 0.56 0.54 0.56 0.49 0.53 0.58 0.60 0.69 0.72 0.66 0.60 0.52 0.49 0.48 0.58 0.67 0.66 0.65 0.53 0.39 0.46 0.49 0.43 0.41 0.35 0.36 0.43 0.41 0.41 0.43 0.47 0.52 0.54 0.57 0.61 0.66
0.49 0.45 0.41 0.38 0.38 0.39 0.42 0.49 0.48 0.46 0.46 0.43 0.41 0.39 0.40 0.43 0.54 0.67 0.69 0.68 0.55 0.44 0.44 0.47 0.38 0.35 0.32 0.33 0.41 0.41 0.40 0.43 0.49 0.55 0.58 0.59 0.61 0.65
0.38 0.35 0.35 0.33 0.39 0.46 0.46 0.47 0.38 0.33 0.37 0.42 0.44 0.44 0.45 0.46 0.48 0.59 0.71 0.79 0.69 0.46 0.37 0.40 0.34 0.32 0.32 0.31 0.35 0.41 0.41 0.43 0.45 0.47 0.50 0.54 0.58 0.64
0.29 0.30 0.35 0.35 0.42 0.49 0.46 0.41 0.35 0.31 0.32 0.36 0.39 0.41 0.40 0.42 0.48 0.49 0.64 0.89 0.79 0.56 0.31 0.37 0.39 0.46 0.59 0.36 0.30 0.33 0.36 0.40 0.44 0.46 0.49 0.54 0.59 0.63
0.26 0.26 0.29 0.40 0.46 0.50 0.44 0.36 0.37 0.41 0.38 0.36 0.37 0.38 0.39 0.42 0.44 0.43 0.50 0.84 1.06 0.77 0.36 0.60 0.76 0.59 0.75 0.52 0.32 0.30 0.32 0.35 0.40 0.44 0.49 0.54 0.64 0.77
0.24 0.24 0.28 0.40 0.43 0.41 0.39 0.39 0.44 0.43 0.35 0.38 0.40 0.39 0.36 0.35 0.35 0.37 0.40 0.46 0.62 0.70 0.51 0.78 1.14 0.86 0.96 0.79 0.44 0.34 0.33 0.35 0.43 0.52 0.58 0.67 0.71 0.78
0.26 0.29 0.33 0.34 0.33 0.33 0.37 0.42 0.42 0.37 0.36 0.39 0.40 0.37 0.35 0.34 0.37 0.41 0.43 0.43 0.43 0.41 0.43 0.53 0.80 0.87 1.07 1.03 0.66 0.42 0.41 0.40 0.43 0.57 0.66 0.71 0.71 0.75
0.31 0.31 0.30 0.29 0.30 0.31 0.33 0.36 0.37 0.38 0.42 0.44 0.41 0.38 0.38 0.41 0.44 0.46 0.50 0.51 0.54 0.46 0.41 0.42 0.51 0.79 0.97 0.75 0.76 0.63 0.52 0.58 0.53 0.63 0.72 0.75 0.79 0.83
0.40 0.35 0.32 0.31 0.31 0.30 0.30 0.32 0.34 0.38 0.43 0.43 0.47 0.48 0.47 0.47 0.45 0.45 0.53 0.58 0.62 0.49 0.43 0.42 0.46 0.54 0.64 0.69 0.74 0.60 0.55 0.61 0.70 0.82 0.95 0.97 0.90 0.94
0.52 0.41 0.33 0.31 0.32 0.31 0.32 0.34 0.37 0.41 0.45 0.50 0.54 0.58 0.60 0.58 0.54 0.48 0.51 0.60 0.61 0.50 0.46 0.45 0.52 0.64 0.61 0.54 0.57 0.67 0.70 0.77 0.82 0.88 1.04 1.22 1.06 0.92
0.49 0.37 0.29 0.27 0.28 0.32 0.36 0.40 0.41 0.42 0.50 0.59 0.65 0.68 0.71 0.68 0.64 0.60 0.56 0.58 0.56 0.50 0.47 0.50 0.65 0.96 0.99 0.62 0.41 0.59 0.91 1.00 0.94 0.96 1.03 1.23 1.37 1.14
0.35 0.30 0.28 0.29 0.32 0.37 0.41 0.44 0.47 0.49 0.54 0.59 0.64 0.70 0.78 0.81 0.74 0.66 0.62 0.65 0.66 0.59 0.51 0.47 0.57 0.94 1.36 1.16 0.84 0.62 0.74 1.08 1.30 1.34 1.12 0.98 1.03 1.03
0.26 0.27 0.30 0.35 0.40 0.44 0.47 0.50 0.55 0.58 0.57 0.62 0.65 0.70 0.79 0.89 0.80 0.68 0.68 0.66 0.72 0.71 0.63 0.48 0.47 0.66 0.99 1.19 1.00 0.65 0.67 0.79 1.13 1.54 1.49 1.28 1.05 0.94
0.28 0.32 0.36 0.42 0.50 0.55 0.57 0.59 0.60 0.57 0.59 0.64 0.65 0.69 0.75 0.86 0.87 0.78 0.76 0.77 0.72 0.69 0.65 0.53 0.51 0.61 0.81 1.05 0.89 0.63 0.62 0.60 0.62 0.73 1.09 1.60 2.12 2.20
0.36 0.40 0.44 0.49 0.56 0.61 0.63 0.63 0.61 0.57 0.57 0.66 0.71 0.72 0.76 0.81 0.78 0.82 0.82 0.83 0.83 0.75 0.69 0.63 0.55 0.56 0.61 0.70 0.78 0.69 0.61 0.56 0.52 0.57 0.78 0.96 1.22 1.51

GEFSNE_prec_meanprecacc_192.txt.gz
Total_Precipitation_Accumulation
1.31 1.32 1.27 1.17 1.16 1.17 1.18 1.25 1.36 1.21 0.91 0.71 0.68 0.68 0.73 0.76 0.85 0.81 0.74 0.88 0.88 0.83 0.85 0.86 0.84 0.83 0.81 0.83 0.92 1.08 1.19 1.24 1.29 1.38 1.44 1.42 1.37 1.41
1.15 1.22 1.23 1.16 1.13 1.14 1.17 1.21 1.29 1.35 1.14 0.77 0.67 0.67 0.72 0.75 0.83 0.74 0.68 0.81 0.79 0.76 0.74 0.73 0.72 0.70 0.69 0.70 0.72 0.81 0.90 0.99 1.07 1.18 1.37 1.52 1.57 1.59
1.01 1.04 1.07 1.09 1.14 1.14 1.16 1.20 1.25 1.31 1.28 0.94 0.77 0.75 0.80 0.80 0.80 0.73 0.66 0.64 0.62 0.72 0.67 0.64 0.63 0.62 0.62 0.61 0.62 0.65 0.69 0.76 0.87 0.99 1.13 1.29 1.42 1.45
0.86 0.91 0.92 0.96 1.00 1.05 1.12 1.17 1.20 1.22 1.24 1.08 0.85 0.77 0.76 0.74 0.71 0.69 0.64 0.58 0.53 0.63 0.61 0.58 0.56 0.55 0.53 0.52 0.56 0.60 0.62 0.65 0.71 0.79 0.86 0.99 1.12 1.24
0.76 0.79 0.82 0.87 0.93 0.94 0.98 1.02 1.04 1.06 1.10 1.06 0.88 0.73 0.68 0.65 0.66 0.62 0.56 0.53 0.48 0.52 0.53 0.52 0.52 0.53 0.54 0.53 0.55 0.56 0.55 0.54 0.56 0.61 0.68 0.79 0.89 0.98
0.72 0.75 0.77 0.80 0.82 0.84 0.88 0.90 0.91 0.92 0.94 0.97 0.90 0.80 0.73 0.69 0.71 0.68 0.63 0.57 0.52 0.47 0.52 0.52 0.54 0.53 0.50 0.47 0.46 0.48 0.50 0.52 0.56 0.62 0.68 0.74 0.81 0.89
0.71 0.72 0.76 0.83 0.85 0.83 0.81 0.81 0.82 0.87 0.91 0.98 0.95 0.80 0.68 0.65 0.65 0.61 0.61 0.60 0.60 0.55 0.54 0.49 0.44 0.40 0.38 0.40 0.43 0.46 0.50 0.54 0.59 0.63 0.68 0.74 0.78 0.85
0.69 0.67 0.67 0.71 0.70 0.72 0.72 0.71 0.76 0.84 0.95 1.00 0.90 0.73 0.58 0.52 0.52 0.57 0.63 0.69 0.63 0.46 0.48 0.46 0.43 0.42 0.38 0.35 0.44 0.48 0.48 0.50 0.53 0.54 0.58 0.63 0.69 0.75
0.65 0.60 0.56 0.55 0.56 0.49 0.54 0.58 0.61 0.70 0.73 0.66 0.60 0.52 0.49 0.48 0.58 0.67 0.67 0.66 0.54 0.41 0.48 0.52 0.46 0.43 0.37 0.38 0.45 0.43 0.43 0.45 0.49 0.53 0.56 0.58 0.62 0.67
0.50 0.45 0.42 0.39 0.38 0.39 0.42 0.50 0.48 0.47 0.46 0.43 0.41 0.39 0.40 0.43 0.54 0.67 0.69 0.68 0.56 0.45 0.45 0.50 0.40 0.38 0.34 0.35 0.43 0.42 0.42 0.45 0.50 0.56 0.60 0.61 0.62 0.66
0.38 0.35 0.35 0.33 0.39 0.46 0.46 0.48 0.38 0.33 0.37 0.42 0.45 0.44 0.45 0.46 0.48 0.60 0.72 0.80 0.70 0.47 0.38 0.42 0.36 0.34 0.34 0.33 0.36 0.43 0.42 0.44 0.46 0.48 0.52 0.56 0.60 0.65
0.29 0.30 0.35 0.35 0.42 0.50 0.46 0.42 0.35 0.31 0.33 0.37 0.40 0.41 0.40 0.42 0.48 0.49 0.65 0.90 0.80 0.57 0.32 0.38 0.41 0.48 0.61 0.37 0.31 0.34 0.37 0.41 0.45 0.49 0.52 0.56 0.61 0.64
0.27 0.27 0.29 0.40 0.46 0.50 0.44 0.36 0.38 0.42 0.38 0.37 0.38 0.38 0.39 0.42 0.44 0.43 0.50 0.85 1.07 0.78 0.37 0.61 0.78 0.62 0.78 0.54 0.33 0.31 0.33 0.36 0.41 0.47 0.52 0.57 0.66 0.79
0.25 0.25 0.29 0.41 0.43 0.41 0.40 0.40 0.44 0.43 0.37 0.39 0.42 0.39 0.37 0.35 0.35 0.37 0.40 0.47 0.63 0.72 0.52 0.79 1.16 0.88 0.99 0.81 0.46 0.34 0.34 0.35 0.44 0.54 0.60 0.69 0.74 0.81
0.27 0.30 0.33 0.35 0.34 0.34 0.38 0.43 0.43 0.38 0.38 0.41 0.41 0.38 0.35 0.35 0.37 0.41 0.44 0.44 0.43 0.42 0.44 0.54 0.81 0.89 1.09 1.06 0.68 0.43 0.42 0.41 0.44 0.59 0.68 0.73 0.74 0.79
0.32 0.31 0.31 0.30 0.30 0.32 0.34 0.36 0.38 0.39 0.43 0.45 0.41 0.38 0.39 0.42 0.45 0.46 0.50 0.51 0.55 0.46 0.41 0.42 0.52 0.81 0.99 0.78 0.78 0.65 0.53 0.60 0.54 0.65 0.74 0.77 0.81 0.85
0.41 0.36 0.33 0.32 0.31 0.30 0.31 0.32 0.35 0.39 0.44 0.44 0.47 0.49 0.48 0.47 0.46 0.46 0.53 0.59 0.63 0.50 0.43 0.42 0.46 0.55 0.66 0.72 0.77 0.62 0.56 0.62 0.71 0.84 0.97 1.00 0.91 0.95
0.53 0.42 0.34 0.32 0.32 0.32 0.33 0.35 0.38 0.42 0.46 0.51 0.55 0.59 0.61 0.59 0.55 0.49 0.52 0.61 0.62 0.51 0.47 0.46 0.54 0.67 0.64 0.56 0.59 0.69 0.71 0.78 0.83 0.90 1.07 1.25 1.08 0.94
0.50 0.38 0.30 0.28 0.29 0.33 0.37 0.41 0.42 0.43 0.51 0.60 0.66 0.69 0.72 0.69 0.66 0.61 0.57 0.60 0.58 0.51 0.48 0.52 0.68 1.00 1.03 0.64 0.42 0.60 0.93 1.01 0.96 0.98 1.06 1.26 1.40 1.17
0.36 0.31 0.29 0.30 0.34 0.38 0.42 0.46 0.48 0.50 0.56 0.60 0.66 0.72 0.80 0.83 0.77 0.68 0.64 0.66 0.68 0.61 0.53 0.49 0.60 0.97 1.40 1.19 0.87 0.64 0.76 1.10 1.32 1.36 1.14 1.00 1.05 1.05
0.27 0.28 0.31 0.36 0.42 0.45 0.48 0.52 0.56 0.59 0.59 0.64 0.67 0.72 0.81 0.91 0.82 0.70 0.70 0.68 0.74 0.74 0.65 0.50 0.49 0.69 1.03 1.23 1.04 0.68 0.69 0.82 1.15 1.57 1.52 1.31 1.08 0.96
0.30 0.34 0.38 0.44 0.51 0.57 0.59 0.60 0.62 0.59 0.60 0.66 0.67 0.71 0.77 0.88 0.89 0.80 0.78 0.79 0.74 0.72 0.67 0.55 0.53 0.63 0.84 1.09 0.92 0.66 0.64 0.62 0.64 0.76 1.12 1.63 2.15 2.23
0.38 0.42 0.45 0.51 0.57 0.62 0.65 0.64 0.63 0.59 0.59 0.68 0.73 0.74 0.78 0.83 0.80 0.84 0.84 0.86 0.86 0.78 0.71 0.65 0.57 0.58 0.64 0.73 0.80 0.71 0.63 0.58 0.54 0.60 0.80 0.98 1.24 1.53

GEFSNE_prec_meanprecacc_198.txt.gz
Total_Precipitation_Accumulation
1.36 1.36 1.30 1.19 1.18 1.18 1.19 1.26 1.37 1.22 0.92 0.72 0.68 0.69 0.74 0.77 0.87 0.83 0.77 0.92 0.91 0.85 0.86 0.86 0.84 0.83 0.81 0.83 0.92 1.09 1.20 1.25 1.30 1.38 1.45 1.43 1.38 1.42
1.19 1.26 1.27 1.20 1.16 1.16 1.19 1.22 1.31 1.36 1.15 0.78 0.67 0.67 0.73 0.75 0.83 0.75 0.70 0.84 0.82 0.79 0.77 0.74 0.73 0.70 0.69 0.70 0.72 0.81 0.91 1.00 1.07 1.19 1.37 1.52 1.59 1.61
1.04 1.07 1.10 1.13 1.17 1.17 1.18 1.21 1.26 1.32 1.29 0.95 0.77 0.76 0.81 0.80 0.80 0.74 0.67 0.65 0.65 0.75 0.70 0.67 0.65 0.63 0.62 0.62 0.63 0.66 0.69 0.77 0.87 1.00 1.14 1.30 1.42 1.47
0.88 0.94 0.95 0.99 1.04 1.08 1.14 1.19 1.21 1.23 1.25 1.09 0.86 0.78 0.76 0.74 0.71 0.69 0.64 0.59 0.54 0.65 0.64 0.61 0.59 0.57 0.54 0.53 0.56 0.60 0.62 0.66 0.72 0.79 0.87 0.99 1.13 1.26
0.77 0.81 0.84 0.90 0.96 0.98 1.01 1.04 1.05 1.06 1.10 1.07 0.88 0.74 0.68 0.65 0.66 0.62 0.56 0.53 0.49 0.53 0.55 0.55 0.55 0.55 0.56 0.55 0.56 0.57 0.56 0.54 0.57 0.62 0.69 0.81 0.91 1.00
0.73 0.77 0.80 0.83 0.85 0.87 0.91 0.92 0.92 0.93 0.95 0.97 0.91 0.80 0.73 0.69 0.71 0.69 0.63 0.57 0.52 0.47 0.53 0.54 0.55 0.55 0.51 0.49 0.48 0.49 0.51 0.53 0.58 0.64 0.70 0.75 0.82 0.91
0.72 0.74 0.78 0.86 0.89 0.86 0.84 0.83 0.83 0.88 0.92 0.98 0.95 0.81 0.68 0.65 0.65 0.61 0.61 0.61 0.60 0.55 0.54 0.49 0.44 0.40 0.39 0.41 0.45 0.47 0.52 0.56 0.61 0.65 0.70 0.76 0.80 0.87
0.71 0.69 0.69 0.73 0.73 0.75 0.74 0.73 0.77 0.85 0.95 1.00 0.90 0.73 0.58 0.52 0.52 0.57 0.63 0.69 0.63 0.46 0.48 0.47 0.44 0.43 0.38 0.36 0.45 0.49 0.50 0.52 0.54 0.56 0.60 0.66 0.72 0.78
0.66 0.62 0.58 0.57 0.58 0.51 0.56 0.60 0.62 0.70 0.73 0.67 0.60 0.53 0.49 0.48 0.58 0.68 0.67 0.66 0.54 0.41 0.48 0.52 0.46 0.44 0.39 0.40 0.47 0.44 0.44 0.47 0.51 0.55 0.58 0.60 0.64 0.70
0.51 0.46 0.43 0.40 0.39 0.40 0.43 0.51 0.49 0.47 0.47 0.44 0.42 0.40 0.40 0.44 0.54 0.68 0.70 0.69 0.56 0.45 0.46 0.50 0.41 0.38 0.35 0.36 0.44 0.44 0.44 0.47 0.52 0.59 0.62 0.63 0.64 0.68
0.39 0.36 0.36 0.34 0.40 0.47 0.47 0.48 0.39 0.34 0.38 0.43 0.45 0.44 0.46 0.46 0.48 0.60 0.72 0.80 0.70 0.47 0.39 0.42 0.36 0.34 0.35 0.34 0.37 0.44 0.43 0.45 0.48 0.50 0.54 0.58 0.62 0.67
0.30 0.31 0.36 0.36 0.43 0.51 0.47 0.43 0.36 0.32 0.33 0.38 0.42 0.43 0.41 0.43 0.48 0.50 0.65 0.91 0.81 0.58 0.32 0.38 0.42 0.48 0.62 0.38 0.31 0.34 0.38 0.42 0.46 0.50 0.53 0.57 0.63 0.67
0.28 0.28 0.30 0.41 0.47 0.50 0.45 0.37 0.38 0.42 0.39 0.38 0.40 0.40 0.41 0.43 0.45 0.44 0.51 0.86 1.08 0.79 0.37 0.62 0.79 0.62 0.79 0.55 0.33 0.31 0.33 0.36 0.42 0.48 0.53 0.59 0.69 0.82
0.27 0.26 0.30 0.42 0.44 0.43 0.41 0.41 0.45 0.45 0.37 0.40 0.43 0.41 0.38 0.36 0.36 0.38 0.41 0.47 0.63 0.72 0.52 0.80 1.18 0.90 1.02 0.83 0.47 0.35 0.34 0.36 0.45 0.56 0.62 0.73 0.77 0.84
0.29 0.31 0.35 0.38 0.36 0.36 0.39 0.44 0.44 0.40 0.39 0.42 0.42 0.39 0.36 0.36 0.38 0.42 0.45 0.44 0.43 0.42 0.44 0.54 0.82 0.90 1.11 1.08 0.69 0.43 0.43 0.41 0.44 0.60 0.70 0.76 0.77 0.81
0.33 0.33 0.32 0.31 0.32 0.34 0.35 0.38 0.39 0.40 0.45 0.46 0.43 0.40 0.40 0.42 0.45 0.47 0.51 0.52 0.55 0.47 0.42 0.42 0.52 0.82 1.01 0.79 0.80 0.66 0.54 0.60 0.55 0.66 0.76 0.79 0.83 0.87
0.43 0.38 0.34 0.33 0.32 0.31 0.32 0.34 0.36 0.40 0.45 0.45 0.49 0.50 0.48 0.48 0.46 0.46 0.54 0.60 0.64 0.51 0.43 0.42 0.47 0.56 0.67 0.73 0.78 0.63 0.57 0.63 0.72 0.85 0.99 1.02 0.93 0.97
0.55 0.44 0.36 0.33 0.33 0.33 0.34 0.37 0.40 0.43 0.47 0.53 0.57 0.60 0.62 0.60 0.56 0.50 0.53 0.62 0.63 0.52 0.47 0.46 0.55 0.69 0.66 0.57 0.59 0.69 0.72 0.79 0.84 0.91 1.09 1.27 1.10 0.95
0.52 0.40 0.32 0.30 0.31 0.34 0.39 0.43 0.44 0.45 0.52 0.62 0.67 0.71 0.74 0.71 0.67 0.62 0.58 0.61 0.59 0.52 0.49 0.52 0.69 1.02 1.06 0.66 0.42 0.60 0.94 1.02 0.97 0.99 1.08 1.28 1.42 1.18
0.38 0.33 0.32 0.33 0.36 0.41 0.45 0.48 0.51 0.53 0.58 0.62 0.67 0.73 0.82 0.85 0.78 0.69 0.65 0.67 0.69 0.62 0.54 0.50 0.61 0.99 1.43 1.21 0.88 0.64 0.76 1.11 1.34 1.38 1.16 1.02 1.07 1.07
0.29 0.30 0.34 0.40 0.45 0.48 0.51 0.54 0.58 0.61 0.61 0.66 0.69 0.73 0.82 0.93 0.84 0.71 0.71 0.69 0.76 0.75 0.67 0.51 0.49 0.70 1.05 1.26 1.07 0.69 0.70 0.83 1.17 1.59 1.54 1.33 1.10 0.98
0.32 0.37 0.41 0.47 0.54 0.59 0.61 0.62 0.64 0.61 0.62 0.68 0.69 0.73 0.78 0.90 0.90 0.81 0.79 0.81 0.75 0.73 0.69 0.56 0.54 0.65 0.87 1.12 0.95 0.67 0.65 0.64 0.66 0.78 1.14 1.65 2.17 2.25
0.41 0.45 0.48 0.53 0.60 0.65 0.67 0.67 0.65 0.60 0.61 0.70 0.75 0.76 0.80 0.85 0.81 0.86 0.86 0.87 0.87 0.79 0.73 0.66 0.59 0.60 0.65 0.75 0.82 0.73 0.65 0.60 0.56 0.62 0.82 1.00 1.26 1.55